IN3ISU-10 Weather Reports


time (UTC)temp
F
wind
direction
speed
knots
gust
knots
rain 1hr
in
rain 24hr
in
rain mn
in
humidity
%
barometer
mb
20260507182649 60 190 5.2 0.0 0.00 0.00 0.00 61 101.3
20260507182543 60 190 5.2 0.0 0.00 0.00 0.00 61 101.3
20260507182437 60 190 5.2 0.0 0.00 0.00 0.00 61 101.3
20260507182331 60 190 5.2 0.0 0.00 0.00 0.00 61 101.3
20260507182224 60 190 5.2 0.0 0.00 0.00 0.00 61 101.3
20260507182118 60 190 6.1 0.0 0.00 0.00 0.00 69 101.3
20260507182012 60 190 6.1 0.0 0.00 0.00 0.00 69 101.3
20260507181906 60 190 6.1 0.0 0.00 0.00 0.00 69 101.3
20260507181800 60 190 6.1 0.0 0.00 0.00 0.00 69 101.3
20260507181653 60 190 6.1 0.0 0.00 0.00 0.00 69 101.3
20260507181547 60 190 6.1 0.0 0.00 0.00 0.00 69 101.3
20260507181441 60 190 6.1 0.0 0.00 0.00 0.00 69 101.3
20260507181335 60 190 6.1 0.0 0.00 0.00 0.00 69 101.3
20260507181229 60 190 6.1 0.0 0.00 0.00 0.00 69 101.3
20260507181122 60 190 6.1 0.0 0.00 0.00 0.00 69 101.3
20260507181016 59 190 7.0 0.0 0.00 0.00 0.00 84 101.3
20260507180910 59 190 7.0 0.0 0.00 0.00 0.00 84 101.3
20260507180804 59 190 7.0 0.0 0.00 0.00 0.00 84 101.3
20260507180658 59 190 7.0 0.0 0.00 0.00 0.00 84 101.3
20260507180551 59 190 7.0 0.0 0.00 0.00 0.00 84 101.3
20260507180445 59 190 7.0 0.0 0.00 0.00 0.00 84 101.3
20260507180339 59 190 7.0 0.0 0.00 0.00 0.00 84 101.3
20260507180233 59 190 7.0 0.0 0.00 0.00 0.00 84 101.3
20260507180127 59 190 7.0 0.0 0.00 0.00 0.00 84 101.3
20260507180020 59 190 7.0 0.0 0.00 0.00 0.00 84 101.3
20260507175914 59 190 7.0 0.0 0.00 0.00 0.00 84 101.3
20260507175808 59 190 7.0 0.0 0.00 0.00 0.00 84 101.3
20260507175702 59 190 7.0 0.0 0.00 0.00 0.00 84 101.3
20260507175555 59 190 7.0 0.0 0.00 0.00 0.00 84 101.3
20260507175449 59 190 7.0 0.0 0.00 0.00 0.00 84 101.3
20260507175343 59 190 7.0 0.0 0.00 0.00 0.00 84 101.3
20260507175237 59 190 7.0 0.0 0.00 0.00 0.00 84 101.3
20260507175130 59 190 7.0 0.0 0.00 0.00 0.00 84 101.3
20260507175024 59 190 7.0 0.0 0.00 0.00 0.00 84 101.3
20260507174918 59 190 7.0 0.0 0.00 0.00 0.00 84 101.3
20260507174812 59 190 7.0 0.0 0.00 0.00 0.00 84 101.3
20260507174706 59 190 7.0 0.0 0.00 0.00 0.00 84 101.3
20260507174559 59 190 7.0 0.0 0.00 0.00 0.00 85 101.3
20260507174453 59 190 7.0 0.0 0.00 0.00 0.00 85 101.3
20260507174347 59 190 7.0 0.0 0.00 0.00 0.00 85 101.3
20260507174241 59 190 7.0 0.0 0.00 0.00 0.00 85 101.3
20260507174134 59 190 7.0 0.0 0.00 0.00 0.00 85 101.3
20260507174027 59 190 7.0 0.0 0.00 0.00 0.00 85 101.3
20260507173921 59 190 7.0 0.0 0.00 0.00 0.00 85 101.3
20260507173815 59 190 7.0 0.0 0.00 0.00 0.00 85 101.3
20260507173709 59 190 7.0 0.0 0.00 0.00 0.00 85 101.3
20260507173603 59 190 7.0 0.0 0.00 0.00 0.00 85 101.3
20260507173457 59 190 7.0 0.0 0.00 0.00 0.00 87 101.3
20260507173350 59 190 7.0 0.0 0.00 0.00 0.00 87 101.3
20260507173244 65 185 7.0 11.3 0.00 0.00 0.00 47 101.3
20260507173138 65 185 7.0 11.3 0.00 0.00 0.00 47 101.3
20260507173032 65 185 7.0 11.3 0.00 0.00 0.00 47 101.3
20260507172925 65 185 7.0 11.3 0.00 0.00 0.00 47 101.3
20260507172819 65 185 7.0 11.3 0.00 0.00 0.00 47 101.3
20260507172713 65 185 7.0 11.3 0.00 0.00 0.00 47 101.3
20260507172607 65 185 7.0 11.3 0.00 0.00 0.00 47 101.3
20260507172501 65 185 7.0 11.3 0.00 0.00 0.00 47 101.3
20260507172354 65 185 7.0 11.3 0.00 0.00 0.00 47 101.3
20260507172248 65 185 7.8 13.0 0.00 0.00 0.00 46 101.2
20260507172142 65 185 7.8 13.0 0.00 0.00 0.00 46 101.2
20260507172036 65 185 7.8 13.0 0.00 0.00 0.00 46 101.2
20260507171929 65 185 7.0 11.3 0.00 0.00 0.00 47 101.3
20260507171823 65 185 7.8 13.0 0.00 0.00 0.00 46 101.2
20260507171717 65 185 7.8 13.0 0.00 0.00 0.00 46 101.2
20260507171611 65 185 7.8 13.0 0.00 0.00 0.00 46 101.2
20260507171505 65 185 7.8 13.0 0.00 0.00 0.00 46 101.2
20260507171358 65 185 7.8 13.0 0.00 0.00 0.00 46 101.2
20260507171252 65 185 7.8 13.0 0.00 0.00 0.00 46 101.2
20260507171146 65 185 7.8 13.0 0.00 0.00 0.00 44 101.2
20260507171039 65 185 7.8 13.0 0.00 0.00 0.00 44 101.2
20260507170933 65 185 7.8 13.0 0.00 0.00 0.00 44 101.2
20260507170827 65 185 7.8 13.0 0.00 0.00 0.00 44 101.2
20260507170720 65 185 7.8 13.0 0.00 0.00 0.00 44 101.2
20260507170614 65 185 7.8 13.0 0.00 0.00 0.00 44 101.2
20260507170508 65 185 7.8 13.0 0.00 0.00 0.00 44 101.2
20260507170402 65 185 7.8 13.0 0.00 0.00 0.00 44 101.2
20260507170255 65 185 7.8 13.0 0.00 0.00 0.00 44 101.2
20260507170149 65 185 7.8 13.0 0.00 0.00 0.00 44 101.2
20260507170043 65 185 7.8 13.0 0.00 0.00 0.00 49 101.2
20260507165937 65 215 6.1 9.6 0.00 0.00 0.00 49 101.2
20260507165828 66 215 6.1 9.6 0.00 0.00 0.00 49 101.2
20260507165722 66 215 7.0 11.3 0.00 0.00 0.00 49 101.2
20260507165616 66 215 7.0 11.3 0.00 0.00 0.00 49 101.2
20260507165510 66 215 7.0 11.3 0.00 0.00 0.00 49 101.2
20260507165403 66 215 7.0 11.3 0.00 0.00 0.00 49 101.2
20260507165257 66 215 7.0 11.3 0.00 0.00 0.00 49 101.2
20260507165151 66 215 7.0 11.3 0.00 0.00 0.00 49 101.2
20260507165045 66 215 7.0 11.3 0.00 0.00 0.00 49 101.2
20260507164938 66 215 7.8 13.0 0.00 0.00 0.00 49 101.2
20260507164832 66 215 7.8 13.0 0.00 0.00 0.00 49 101.2
20260507164726 66 215 7.8 13.0 0.00 0.00 0.00 49 101.2
20260507164620 66 215 7.8 13.0 0.00 0.00 0.00 49 101.2
20260507164514 66 215 7.8 13.0 0.00 0.00 0.00 49 101.2
20260507164408 66 215 7.8 13.0 0.00 0.00 0.00 49 101.2
20260507164301 66 215 7.8 13.0 0.00 0.00 0.00 49 101.2
20260507164155 66 215 8.7 14.8 0.00 0.00 0.00 49 101.2
20260507164049 66 215 8.7 14.8 0.00 0.00 0.00 49 101.2
20260507163943 66 215 8.7 14.8 0.00 0.00 0.00 49 101.2
20260507163837 66 215 8.7 14.8 0.00 0.00 0.00 49 101.2
20260507163730 66 215 8.7 14.8 0.00 0.00 0.00 49 101.2
20260507163624 66 215 8.7 14.8 0.00 0.00 0.00 49 101.2
20260507163518 67 215 10.4 17.4 0.00 0.00 0.00 48 101.3
20260507163411 67 215 10.4 17.4 0.00 0.00 0.00 48 101.3
20260507163305 67 215 10.4 17.4 0.00 0.00 0.00 48 101.3
20260507163159 67 215 10.4 17.4 0.00 0.00 0.00 48 101.3
20260507163053 67 215 10.4 17.4 0.00 0.00 0.00 48 101.3
20260507162945 67 215 10.4 17.4 0.00 0.00 0.00 48 101.3
20260507162839 67 215 10.4 17.4 0.00 0.00 0.00 48 101.3
20260507162732 67 215 10.4 17.4 0.00 0.00 0.00 48 101.3
20260507162626 67 215 10.4 17.4 0.00 0.00 0.00 48 101.3
20260507162520 67 215 10.4 17.4 0.00 0.00 0.00 48 101.3
20260507162412 67 215 10.4 17.4 0.00 0.00 0.00 46 101.3
20260507162307 67 215 10.4 17.4 0.00 0.00 0.00 46 101.3
20260507162200 67 215 10.4 17.4 0.00 0.00 0.00 46 101.3
20260507162054 68 194 7.8 18.2 0.00 0.00 0.00 41 101.2
20260507161948 67 215 10.4 17.4 0.00 0.00 0.00 46 101.2
20260507161841 67 215 10.4 17.4 0.00 0.00 0.00 46 101.2
20260507161735 67 215 10.4 17.4 0.00 0.00 0.00 46 101.2
20260507161629 68 194 7.8 18.2 0.00 0.00 0.00 41 101.2
20260507161523 68 194 7.8 18.2 0.00 0.00 0.00 41 101.2
20260507161416 67 194 7.8 18.2 0.00 0.00 0.00 46 101.2
20260507161310 68 194 7.8 18.2 0.00 0.00 0.00 41 101.2
20260507161204 68 194 7.8 18.2 0.00 0.00 0.00 41 101.2
20260507161058 68 194 7.8 18.2 0.00 0.00 0.00 41 101.2
20260507160951 68 194 7.8 18.2 0.00 0.00 0.00 41 101.2
20260507160845 68 194 7.8 18.2 0.00 0.00 0.00 41 101.2
20260507160739 68 194 7.8 18.2 0.00 0.00 0.00 41 101.2
20260507160633 68 194 7.8 18.2 0.00 0.00 0.00 41 101.2
20260507160527 68 189 7.8 12.2 0.00 0.00 0.00 41 101.2
20260507160420 68 189 7.8 12.2 0.00 0.00 0.00 41 101.2
20260507160314 68 189 8.7 13.9 0.00 0.00 0.00 41 101.2
20260507160203 68 189 8.7 13.9 0.00 0.00 0.00 41 101.2
20260507160057 68 189 8.7 13.9 0.00 0.00 0.00 41 101.2
20260507155950 68 189 9.6 15.6 0.00 0.00 0.00 40 101.2
20260507155844 68 189 9.6 15.6 0.00 0.00 0.00 40 101.2
20260507155738 68 189 9.6 15.6 0.00 0.00 0.00 40 101.2
20260507155632 68 189 9.6 15.6 0.00 0.00 0.00 40 101.2
20260507155525 68 189 9.6 15.6 0.00 0.00 0.00 40 101.2
20260507155419 68 189 9.6 15.6 0.00 0.00 0.00 40 101.2
20260507155313 68 189 9.6 15.6 0.00 0.00 0.00 40 101.2
20260507155207 68 189 9.6 15.6 0.00 0.00 0.00 40 101.2
20260507155101 68 189 9.6 15.6 0.00 0.00 0.00 40 101.2
20260507154954 68 189 9.6 15.6 0.00 0.00 0.00 40 101.2
20260507154848 68 189 9.6 15.6 0.00 0.00 0.00 40 101.2
20260507154735 68 190 2.6 7.8 0.00 0.00 0.00 39 101.2
20260507154629 68 190 2.6 7.8 0.00 0.00 0.00 39 101.2
20260507154523 68 190 2.6 7.8 0.00 0.00 0.00 39 101.2
20260507154416 68 190 2.6 7.8 0.00 0.00 0.00 39 101.2
20260507154310 68 190 2.6 7.8 0.00 0.00 0.00 39 101.2
20260507154204 68 190 2.6 7.8 0.00 0.00 0.00 39 101.2
20260507154058 68 190 2.6 7.8 0.00 0.00 0.00 39 101.2
20260507153952 68 190 2.6 7.8 0.00 0.00 0.00 39 101.2
20260507153846 68 190 2.6 7.8 0.00 0.00 0.00 39 101.2
20260507153739 68 190 2.6 7.8 0.00 0.00 0.00 39 101.2
20260507153633 68 190 3.5 8.7 0.00 0.00 0.00 46 101.2
20260507153527 68 190 3.5 8.7 0.00 0.00 0.00 46 101.2
20260507153421 68 190 3.5 8.7 0.00 0.00 0.00 46 101.2
20260507153315 68 190 3.5 8.7 0.00 0.00 0.00 46 101.2
20260507153208 68 190 3.5 8.7 0.00 0.00 0.00 46 101.2
20260507153102 68 190 3.5 8.7 0.00 0.00 0.00 46 101.2
20260507152956 68 190 3.5 8.7 0.00 0.00 0.00 46 101.2
20260507152850 68 190 3.5 8.7 0.00 0.00 0.00 46 101.2
20260507152742 68 190 3.5 8.7 0.00 0.00 0.00 46 101.2
20260507152635 68 190 3.5 8.7 0.00 0.00 0.00 46 101.2
20260507152529 68 190 4.3 9.6 0.00 0.00 0.00 47 101.2
20260507152422 68 190 4.3 9.6 0.00 0.00 0.00 47 101.2
20260507152316 68 187 3.5 9.6 0.00 0.00 0.00 46 101.2
20260507152210 68 187 3.5 9.6 0.00 0.00 0.00 46 101.2
20260507152104 68 187 3.5 9.6 0.00 0.00 0.00 46 101.2
20260507151957 68 187 4.3 11.3 0.00 0.00 0.00 46 101.2
20260507151851 68 187 4.3 11.3 0.00 0.00 0.00 46 101.2
20260507151745 68 187 4.3 11.3 0.00 0.00 0.00 46 101.2
20260507151639 68 190 4.3 9.6 0.00 0.00 0.00 47 101.2
20260507151529 68 190 4.3 9.6 0.00 0.00 0.00 47 101.2
20260507151423 68 190 5.2 11.3 0.00 0.00 0.00 47 101.2
20260507151317 68 190 5.2 11.3 0.00 0.00 0.00 47 101.2
20260507151211 68 190 5.2 11.3 0.00 0.00 0.00 47 101.2
20260507151104 68 190 5.2 11.3 0.00 0.00 0.00 47 101.2
20260507150958 68 190 5.2 11.3 0.00 0.00 0.00 47 101.2
20260507150852 68 190 5.2 11.3 0.00 0.00 0.00 47 101.2
20260507150746 68 190 5.2 11.3 0.00 0.00 0.00 47 101.2
20260507150640 68 190 5.2 11.3 0.00 0.00 0.00 47 101.2
20260507150533 68 190 6.1 13.0 0.00 0.00 0.00 46 101.2
20260507150427 68 190 5.2 11.3 0.00 0.00 0.00 47 101.2
20260507150321 68 190 6.1 13.0 0.00 0.00 0.00 46 101.2
20260507150215 68 190 6.1 13.0 0.00 0.00 0.00 46 101.2
20260507150108 68 190 6.1 13.0 0.00 0.00 0.00 46 101.2
20260507150002 68 190 6.1 13.0 0.00 0.00 0.00 46 101.2
20260507145856 68 190 6.1 13.0 0.00 0.00 0.00 46 101.2
20260507145746 68 190 6.1 13.0 0.00 0.00 0.00 46 101.2
20260507145534 68 190 6.1 13.0 0.00 0.00 0.00 46 101.2
20260507145428 68 190 6.1 13.0 0.00 0.00 0.00 47 101.2
20260507145321 68 190 6.1 13.0 0.00 0.00 0.00 47 101.2
20260507145215 68 190 6.1 13.0 0.00 0.00 0.00 47 101.2
20260507145109 68 190 6.1 13.0 0.00 0.00 0.00 47 101.2
20260507145003 68 190 6.1 13.0 0.00 0.00 0.00 47 101.2
20260507144857 68 190 6.1 13.0 0.00 0.00 0.00 47 101.2
20260507144750 68 190 6.1 13.0 0.00 0.00 0.00 47 101.2
20260507144644 68 205 6.1 13.0 0.00 0.00 0.00 48 101.2
20260507144537 68 205 6.1 13.0 0.00 0.00 0.00 48 101.2
20260507144424 68 205 6.1 13.0 0.00 0.00 0.00 48 101.2
20260507144318 68 205 6.1 13.0 0.00 0.00 0.00 48 101.2
20260507144212 68 205 6.1 13.0 0.00 0.00 0.00 48 101.2
20260507144105 68 205 6.1 13.0 0.00 0.00 0.00 48 101.2
20260507143959 68 205 7.0 14.8 0.00 0.00 0.00 47 101.2
20260507143853 68 205 7.0 14.8 0.00 0.00 0.00 47 101.2
20260507143747 68 205 7.0 14.8 0.00 0.00 0.00 47 101.2
20260507143641 68 205 7.0 14.8 0.00 0.00 0.00 47 101.2
20260507143537 68 205 7.0 14.8 0.00 0.00 0.00 47 101.2
20260507143428 68 205 7.0 14.8 0.00 0.00 0.00 47 101.2
20260507143322 68 205 7.0 14.8 0.00 0.00 0.00 47 101.2
20260507143216 68 205 7.0 14.8 0.00 0.00 0.00 47 101.2
20260507143109 68 205 7.0 14.8 0.00 0.00 0.00 47 101.2
20260507143003 68 205 7.0 14.8 0.00 0.00 0.00 47 101.2
20260507142854 68 205 7.0 14.8 0.00 0.00 0.00 43 101.2
20260507142748 68 205 7.0 14.8 0.00 0.00 0.00 43 101.2
20260507142640 68 205 7.0 14.8 0.00 0.00 0.00 43 101.2
20260507142534 68 205 7.0 14.8 0.00 0.00 0.00 43 101.2
20260507142428 68 205 7.0 14.8 0.00 0.00 0.00 43 101.2
20260507142322 68 205 7.0 14.8 0.00 0.00 0.00 43 101.2
20260507142216 68 205 7.0 14.8 0.00 0.00 0.00 43 101.2
20260507142109 68 205 7.0 14.8 0.00 0.00 0.00 43 101.2
20260507142003 67 205 7.0 14.8 0.00 0.00 0.00 47 101.1
20260507141857 67 205 7.0 14.8 0.00 0.00 0.00 47 101.1
20260507141751 67 205 7.0 14.8 0.00 0.00 0.00 47 101.1
20260507141645 67 205 7.0 14.8 0.00 0.00 0.00 47 101.1
20260507141538 67 205 7.0 14.8 0.00 0.00 0.00 47 101.1
20260507141432 66 196 5.2 8.7 0.00 0.00 0.00 56 101.1
20260507141326 66 196 5.2 8.7 0.00 0.00 0.00 56 101.1
20260507141220 66 196 5.2 8.7 0.00 0.00 0.00 56 101.1
20260507141114 66 196 5.2 8.7 0.00 0.00 0.00 56 101.1
20260507141008 66 196 5.2 8.7 0.00 0.00 0.00 49 101.1
20260507140901 65 141 2.6 4.3 0.00 0.00 0.00 59 101.2
20260507140755 65 141 2.6 4.3 0.00 0.00 0.00 59 101.2
20260507140649 65 141 2.6 4.3 0.00 0.00 0.00 59 101.2
20260507140542 65 141 2.6 4.3 0.00 0.00 0.00 59 101.2
20260507140435 65 141 2.6 4.3 0.00 0.00 0.00 59 101.2
20260507140329 65 141 2.6 4.3 0.00 0.00 0.00 59 101.2
20260507140223 65 141 2.6 4.3 0.00 0.00 0.00 59 101.2
20260507140116 65 141 2.6 4.3 0.00 0.00 0.00 59 101.2
20260507140010 65 141 2.6 4.3 0.00 0.00 0.00 59 101.2
20260507135904 65 141 2.6 4.3 0.00 0.00 0.00 59 101.2
20260507135758 65 141 2.6 5.2 0.00 0.00 0.00 60 101.2
20260507135652 65 141 2.6 5.2 0.00 0.00 0.00 60 101.2
20260507135545 65 141 2.6 5.2 0.00 0.00 0.00 60 101.2
20260507135439 65 141 2.6 5.2 0.00 0.00 0.00 60 101.2
20260507135333 65 141 3.5 6.1 0.00 0.00 0.00 61 101.2
20260507135227 65 141 3.5 6.1 0.00 0.00 0.00 61 101.2
20260507135121 65 141 3.5 6.1 0.00 0.00 0.00 61 101.2
20260507135014 65 141 3.5 6.1 0.00 0.00 0.00 61 101.2
20260507134729 65 141 3.5 6.1 0.00 0.00 0.00 61 101.2
20260507134623 65 141 3.5 6.1 0.00 0.00 0.00 61 101.2
20260507134515 65 141 3.5 6.1 0.00 0.00 0.00 61 101.2
20260507134409 65 141 3.5 6.1 0.00 0.00 0.00 61 101.2
20260507134303 65 141 4.3 7.0 0.00 0.00 0.00 58 101.2
20260507134156 65 141 4.3 7.0 0.00 0.00 0.00 58 101.2
20260507134050 65 141 4.3 7.0 0.00 0.00 0.00 58 101.2
20260507133944 65 141 4.3 7.0 0.00 0.00 0.00 58 101.2
20260507133838 65 141 4.3 7.0 0.00 0.00 0.00 58 101.2
20260507133732 65 141 4.3 7.0 0.00 0.00 0.00 58 101.2
20260507133625 65 141 4.3 7.0 0.00 0.00 0.00 58 101.2
20260507133519 64 141 5.2 7.8 0.00 0.00 0.00 52 101.3
20260507133413 64 141 5.2 7.8 0.00 0.00 0.00 52 101.3
20260507133306 64 141 5.2 7.8 0.00 0.00 0.00 52 101.3
20260507133200 64 141 5.2 7.8 0.00 0.00 0.00 52 101.3
20260507133054 64 141 5.2 7.8 0.00 0.00 0.00 52 101.3
20260507132947 64 141 5.2 7.8 0.00 0.00 0.00 52 101.3
20260507132841 64 141 5.2 7.8 0.00 0.00 0.00 52 101.3
20260507132735 64 141 5.2 7.8 0.00 0.00 0.00 52 101.3
20260507132629 64 141 5.2 7.8 0.00 0.00 0.00 52 101.3
20260507132523 64 141 6.1 8.7 0.00 0.00 0.00 53 101.3
20260507132416 64 141 6.1 8.7 0.00 0.00 0.00 53 101.3
20260507132310 64 141 6.1 8.7 0.00 0.00 0.00 53 101.3
20260507132204 64 141 6.1 8.7 0.00 0.00 0.00 53 101.3
20260507132058 64 141 6.1 8.7 0.00 0.00 0.00 53 101.3
20260507131951 64 141 6.1 8.7 0.00 0.00 0.00 53 101.3
20260507131845 64 141 6.1 8.7 0.00 0.00 0.00 53 101.3
20260507131739 64 141 6.1 8.7 0.00 0.00 0.00 53 101.3
20260507131633 64 141 6.1 8.7 0.00 0.00 0.00 53 101.3
20260507131527 64 141 6.1 8.7 0.00 0.00 0.00 53 101.3
20260507131420 63 141 7.0 9.6 0.00 0.00 0.00 56 101.3
20260507131314 63 141 7.0 9.6 0.00 0.00 0.00 56 101.3
20260507131208 63 141 7.0 9.6 0.00 0.00 0.00 56 101.3
20260507131102 63 141 7.0 9.6 0.00 0.00 0.00 56 101.3
20260507130956 62 141 7.8 11.3 0.00 0.00 0.00 61 101.3
20260507130849 62 141 7.8 11.3 0.00 0.00 0.00 61 101.3
20260507130743 62 141 7.8 11.3 0.00 0.00 0.00 61 101.3
20260507130637 62 141 7.8 11.3 0.00 0.00 0.00 61 101.3
20260507130531 62 141 7.8 11.3 0.00 0.00 0.00 61 101.3
20260507130425 62 141 7.8 11.3 0.00 0.00 0.00 61 101.3
20260507130318 62 141 7.8 11.3 0.00 0.00 0.00 61 101.3
20260507130212 62 141 8.7 13.0 0.00 0.00 0.00 59 101.3
20260507130106 62 141 8.7 13.0 0.00 0.00 0.00 59 101.3
20260507130000 62 141 8.7 13.0 0.00 0.00 0.00 59 101.3
20260507125854 62 141 8.7 13.0 0.00 0.00 0.00 59 101.3
20260507125747 62 141 8.7 13.0 0.00 0.00 0.00 59 101.3
20260507125641 63 115 8.7 13.0 0.00 0.00 0.00 55 101.3
20260507125535 63 115 8.7 13.0 0.00 0.00 0.00 55 101.3
20260507125429 63 115 8.7 13.0 0.00 0.00 0.00 55 101.3
20260507125323 63 115 8.7 13.0 0.00 0.00 0.00 55 101.3
20260507125217 63 115 8.7 13.0 0.00 0.00 0.00 55 101.3
20260507125109 63 115 8.7 13.0 0.00 0.00 0.00 55 101.3
20260507125003 63 115 8.7 13.0 0.00 0.00 0.00 55 101.3
20260507124856 63 115 8.7 13.0 0.00 0.00 0.00 55 101.3
20260507124750 63 115 8.7 13.0 0.00 0.00 0.00 55 101.3
20260507124644 63 115 8.7 13.0 0.00 0.00 0.00 55 101.3
20260507124538 64 115 10.4 14.8 0.00 0.00 0.00 56 101.3
20260507124432 64 115 10.4 14.8 0.00 0.00 0.00 56 101.3
20260507124325 64 115 10.4 14.8 0.00 0.00 0.00 56 101.3
20260507124219 64 115 10.4 14.8 0.00 0.00 0.00 56 101.3
20260507124113 64 115 10.4 14.8 0.00 0.00 0.00 56 101.3
20260507124007 64 115 10.4 14.8 0.00 0.00 0.00 56 101.3
20260507123900 64 115 10.4 14.8 0.00 0.00 0.00 56 101.3
20260507123754 64 115 10.4 14.8 0.00 0.00 0.00 56 101.3
20260507123648 64 115 10.4 14.8 0.00 0.00 0.00 56 101.3
20260507123542 64 115 10.4 14.8 0.00 0.00 0.00 56 101.3
20260507123436 65 115 12.2 16.5 0.00 0.00 0.00 53 101.3
20260507123325 65 115 12.2 16.5 0.00 0.00 0.00 53 101.3
20260507123218 65 115 12.2 16.5 0.00 0.00 0.00 53 101.3
20260507123112 65 115 12.2 16.5 0.00 0.00 0.00 53 101.3
20260507123006 65 115 12.2 16.5 0.00 0.00 0.00 53 101.3
20260507122900 65 115 12.2 16.5 0.00 0.00 0.00 53 101.3
20260507122754 65 115 12.2 16.5 0.00 0.00 0.00 53 101.3
20260507122647 65 115 12.2 16.5 0.00 0.00 0.00 53 101.3
20260507122541 65 115 12.2 16.5 0.00 0.00 0.00 53 101.3
20260507122435 65 115 12.2 16.5 0.00 0.00 0.00 53 101.3
20260507122329 65 115 12.2 16.5 0.00 0.00 0.00 48 101.3
20260507122223 65 115 12.2 16.5 0.00 0.00 0.00 48 101.3
20260507122116 65 115 12.2 16.5 0.00 0.00 0.00 48 101.3
20260507122010 65 115 12.2 16.5 0.00 0.00 0.00 48 101.3
20260507121904 65 115 12.2 16.5 0.00 0.00 0.00 48 101.3
20260507121758 65 115 12.2 16.5 0.00 0.00 0.00 48 101.3
20260507121652 65 194 7.8 14.8 0.00 0.00 0.00 48 101.3
20260507121545 65 194 7.8 14.8 0.00 0.00 0.00 48 101.3
20260507121439 65 194 7.8 14.8 0.00 0.00 0.00 48 101.3
20260507121333 65 194 7.8 14.8 0.00 0.00 0.00 48 101.3
20260507121227 65 194 7.8 14.8 0.00 0.00 0.00 48 101.3
20260507121121 65 194 7.8 14.8 0.00 0.00 0.00 48 101.3
20260507121014 65 194 7.8 14.8 0.00 0.00 0.00 48 101.3
20260507120908 65 194 7.8 14.8 0.00 0.00 0.00 48 101.3
20260507120802 65 194 7.8 14.8 0.00 0.00 0.00 48 101.3
20260507120656 65 194 7.8 14.8 0.00 0.00 0.00 48 101.3
20260507120550 65 194 8.7 16.5 0.00 0.00 0.00 48 101.3
20260507120443 65 194 8.7 16.5 0.00 0.00 0.00 48 101.3
20260507120337 65 194 8.7 16.5 0.00 0.00 0.00 48 101.3
20260507120231 65 194 9.6 19.1 0.00 0.00 0.00 48 101.3
20260507120125 65 194 9.6 19.1 0.00 0.00 0.00 48 101.3
20260507120018 65 194 9.6 19.1 0.00 0.00 0.00 48 101.3
20260507115912 65 194 9.6 19.1 0.00 0.00 0.00 48 101.3
20260507115806 65 194 9.6 19.1 0.00 0.00 0.00 48 101.3
20260507115700 65 194 9.6 19.1 0.00 0.00 0.00 48 101.3
20260507115553 65 194 9.6 19.1 0.00 0.00 0.00 48 101.3
20260507115447 65 194 9.6 19.1 0.00 0.00 0.00 48 101.3
20260507115341 65 194 9.6 19.1 0.00 0.00 0.00 48 101.3
20260507115235 65 194 9.6 19.1 0.00 0.00 0.00 48 101.3
20260507115021 65 194 9.6 19.1 0.00 0.00 0.00 48 101.3
20260507114915 65 194 9.6 19.1 0.00 0.00 0.00 48 101.3
20260507114809 65 221 6.1 19.1 0.00 0.00 0.00 49 101.3
20260507114703 65 221 6.1 19.1 0.00 0.00 0.00 49 101.3
20260507114557 65 221 6.1 19.1 0.00 0.00 0.00 49 101.3
20260507114450 65 221 6.1 19.1 0.00 0.00 0.00 49 101.3
20260507114344 65 221 6.1 19.1 0.00 0.00 0.00 49 101.3
20260507114238 65 221 6.1 19.1 0.00 0.00 0.00 49 101.3
20260507114132 65 221 6.1 19.1 0.00 0.00 0.00 49 101.3
20260507114025 65 221 6.1 19.1 0.00 0.00 0.00 49 101.3
20260507113919 65 221 6.1 19.1 0.00 0.00 0.00 49 101.3
20260507113813 65 221 6.1 19.1 0.00 0.00 0.00 49 101.3
20260507113707 65 221 6.1 19.1 0.00 0.00 0.00 49 101.3
20260507113600 65 221 6.1 19.1 0.00 0.00 0.00 49 101.3
20260507113454 65 221 6.1 19.1 0.00 0.00 0.00 49 101.3
20260507113348 65 221 6.1 19.1 0.00 0.00 0.00 49 101.3
20260507113241 65 215 2.6 9.6 0.00 0.00 0.00 48 101.3
20260507113135 65 215 2.6 9.6 0.00 0.00 0.00 48 101.3
20260507113024 65 215 2.6 9.6 0.00 0.00 0.00 48 101.3
20260507112918 65 215 2.6 9.6 0.00 0.00 0.00 48 101.3
20260507112811 65 215 2.6 9.6 0.00 0.00 0.00 48 101.3
20260507112705 65 215 2.6 9.6 0.00 0.00 0.00 48 101.3
20260507112559 65 215 2.6 9.6 0.00 0.00 0.00 48 101.3
20260507112453 65 215 2.6 9.6 0.00 0.00 0.00 48 101.3
20260507112346 65 215 2.6 9.6 0.00 0.00 0.00 48 101.3
20260507112240 65 215 2.6 9.6 0.00 0.00 0.00 48 101.3
20260507112134 65 215 2.6 9.6 0.00 0.00 0.00 48 101.3
20260507112028 65 215 2.6 9.6 0.00 0.00 0.00 48 101.3
20260507111922 65 175 2.6 7.8 0.00 0.00 0.00 48 101.3
20260507111815 65 175 2.6 7.8 0.00 0.00 0.00 48 101.3
20260507111709 65 175 2.6 7.8 0.00 0.00 0.00 48 101.3
20260507111603 65 175 2.6 7.8 0.00 0.00 0.00 48 101.3
20260507111455 65 175 2.6 7.8 0.00 0.00 0.00 48 101.3
20260507111349 65 175 2.6 7.8 0.00 0.00 0.00 48 101.3
20260507111243 65 175 2.6 7.8 0.00 0.00 0.00 48 101.3
20260507111135 65 175 2.6 7.8 0.00 0.00 0.00 48 101.3
20260507111029 65 175 2.6 7.8 0.00 0.00 0.00 49 101.3
20260507110923 65 175 2.6 7.8 0.00 0.00 0.00 52 101.2
20260507110817 65 175 2.6 7.8 0.00 0.00 0.00 52 101.2
20260507110710 65 175 2.6 7.8 0.00 0.00 0.00 49 101.3
20260507110604 65 175 2.6 7.8 0.00 0.00 0.00 52 101.2
20260507110457 65 175 2.6 7.8 0.00 0.00 0.00 52 101.2
20260507110351 65 175 2.6 7.8 0.00 0.00 0.00 52 101.2
20260507110245 65 175 2.6 7.8 0.00 0.00 0.00 52 101.2
20260507110139 65 175 2.6 7.8 0.00 0.00 0.00 52 101.2
20260507110032 65 328 2.6 2.6 0.00 0.00 0.00 60 101.2
20260507105925 65 328 2.6 2.6 0.00 0.00 0.00 60 101.2
20260507105819 65 328 2.6 2.6 0.00 0.00 0.00 60 101.2
20260507105712 65 328 2.6 2.6 0.00 0.00 0.00 60 101.2
20260507105606 65 328 2.6 2.6 0.00 0.00 0.00 60 101.2
20260507105500 65 328 2.6 2.6 0.00 0.00 0.00 60 101.2
20260507105354 65 328 2.6 2.6 0.00 0.00 0.00 60 101.2
20260507105248 65 328 2.6 2.6 0.00 0.00 0.00 60 101.2
20260507105141 65 328 2.6 2.6 0.00 0.00 0.00 60 101.2
20260507105035 65 328 2.6 2.6 0.00 0.00 0.00 60 101.2
20260507104929 65 328 2.6 2.6 0.00 0.00 0.00 60 101.2
20260507104823 65 328 2.6 2.6 0.00 0.00 0.00 60 101.2
20260507104716 65 328 2.6 2.6 0.00 0.00 0.00 60 101.2
20260507104610 65 328 2.6 2.6 0.00 0.00 0.00 60 101.2
20260507104505 65 328 2.6 2.6 0.00 0.00 0.00 60 101.2
20260507104358 65 328 2.6 2.6 0.00 0.00 0.00 60 101.2
20260507104252 65 328 2.6 2.6 0.00 0.00 0.00 60 101.2
20260507104145 65 328 2.6 2.6 0.00 0.00 0.00 60 101.2
20260507104039 65 328 2.6 2.6 0.00 0.00 0.00 60 101.2
20260507103933 65 328 2.6 2.6 0.00 0.00 0.00 60 101.2
20260507103827 65 328 2.6 2.6 0.00 0.00 0.00 60 101.2
20260507103721 65 328 2.6 2.6 0.00 0.00 0.00 60 101.2
20260507103614 65 328 2.6 2.6 0.00 0.00 0.00 59 101.4
20260507103508 65 328 2.6 2.6 0.00 0.00 0.00 59 101.4
20260507103402 65 328 2.6 2.6 0.00 0.00 0.00 59 101.4
20260507103256 65 328 2.6 2.6 0.00 0.00 0.00 59 101.4
20260507103043 65 328 2.6 2.6 0.00 0.00 0.00 59 101.4
20260507102937 65 328 2.6 2.6 0.00 0.00 0.00 59 101.4
20260507102831 65 328 2.6 2.6 0.00 0.00 0.00 59 101.4
20260507102725 65 328 2.6 2.6 0.00 0.00 0.00 59 101.4
20260507102619 65 328 2.6 2.6 0.00 0.00 0.00 59 101.4
20260507102512 65 328 2.6 3.5 0.00 0.00 0.00 58 101.3
20260507102406 65 328 2.6 3.5 0.00 0.00 0.00 58 101.3
20260507102300 65 328 2.6 3.5 0.00 0.00 0.00 58 101.3
20260507102154 65 328 2.6 3.5 0.00 0.00 0.00 58 101.3
20260507102047 65 328 2.6 3.5 0.00 0.00 0.00 58 101.3
20260507101941 65 328 2.6 3.5 0.00 0.00 0.00 58 101.4
20260507101835 65 328 2.6 4.3 0.00 0.00 0.00 57 101.3
20260507101729 65 328 2.6 4.3 0.00 0.00 0.00 57 101.3
20260507101623 65 328 2.6 4.3 0.00 0.00 0.00 57 101.3
20260507101517 65 328 2.6 4.3 0.00 0.00 0.00 57 101.3
20260507101410 65 328 2.6 4.3 0.00 0.00 0.00 57 101.3
20260507101304 65 328 2.6 4.3 0.00 0.00 0.00 57 101.3
20260507101157 65 328 2.6 4.3 0.00 0.00 0.00 57 101.3
20260507101051 65 328 2.6 4.3 0.00 0.00 0.00 57 101.3
20260507100945 65 328 2.6 4.3 0.00 0.00 0.00 57 101.3
20260507100839 65 328 2.6 4.3 0.00 0.00 0.00 57 101.3
20260507100732 65 328 2.6 4.3 0.00 0.00 0.00 54 101.3
20260507100626 65 328 2.6 4.3 0.00 0.00 0.00 54 101.3
20260507100519 65 328 2.6 4.3 0.00 0.00 0.00 54 101.3
20260507100413 65 328 2.6 4.3 0.00 0.00 0.00 54 101.3
20260507100307 65 328 2.6 4.3 0.00 0.00 0.00 54 101.3
20260507100201 65 297 2.6 2.6 0.00 0.00 0.00 48 101.3
20260507100055 65 297 2.6 2.6 0.00 0.00 0.00 48 101.3
20260507095948 65 297 2.6 2.6 0.00 0.00 0.00 48 101.3
20260507095842 65 297 2.6 2.6 0.00 0.00 0.00 48 101.3
20260507095735 65 297 2.6 2.6 0.00 0.00 0.00 48 101.3
20260507095629 65 297 2.6 2.6 0.00 0.00 0.00 48 101.3
20260507095522 65 297 2.6 2.6 0.00 0.00 0.00 48 101.3
20260507095416 65 297 2.6 2.6 0.00 0.00 0.00 48 101.3
20260507095310 65 297 2.6 2.6 0.00 0.00 0.00 48 101.3
20260507095204 65 297 2.6 2.6 0.00 0.00 0.00 48 101.3
20260507095057 65 297 2.6 2.6 0.00 0.00 0.00 49 101.3
20260507094951 65 297 2.6 2.6 0.00 0.00 0.00 48 101.3
20260507094845 65 297 2.6 2.6 0.00 0.00 0.00 48 101.3
20260507094739 65 297 2.6 2.6 0.00 0.00 0.00 49 101.3
20260507094632 65 297 2.6 2.6 0.00 0.00 0.00 49 101.3
20260507094526 65 297 2.6 2.6 0.00 0.00 0.00 49 101.3
20260507094420 65 297 2.6 2.6 0.00 0.00 0.00 49 101.3
20260507094314 65 297 2.6 2.6 0.00 0.00 0.00 49 101.3
20260507094208 65 297 2.6 2.6 0.00 0.00 0.00 49 101.3
20260507094101 65 297 2.6 2.6 0.00 0.00 0.00 49 101.3
20260507093955 65 297 2.6 2.6 0.00 0.00 0.00 49 101.3
20260507093849 65 297 2.6 2.6 0.00 0.00 0.00 49 101.3
20260507093743 65 297 2.6 2.6 0.00 0.00 0.00 49 101.3
20260507093636 65 297 2.6 2.6 0.00 0.00 0.00 49 101.2
20260507093530 65 297 2.6 2.6 0.00 0.00 0.00 49 101.2
20260507093424 65 297 2.6 2.6 0.00 0.00 0.00 49 101.2
20260507093318 65 297 2.6 2.6 0.00 0.00 0.00 49 101.2
20260507093212 65 297 2.6 2.6 0.00 0.00 0.00 49 101.2
20260507093105 65 297 2.6 2.6 0.00 0.00 0.00 49 101.2
20260507092959 64 297 2.6 2.6 0.00 0.00 0.00 50 101.2
20260507092853 64 297 2.6 2.6 0.00 0.00 0.00 50 101.2
20260507092747 64 297 2.6 2.6 0.00 0.00 0.00 50 101.2
20260507092641 64 297 2.6 2.6 0.00 0.00 0.00 50 101.2
20260507092534 64 297 2.6 2.6 0.00 0.00 0.00 50 101.2
20260507092428 64 297 2.6 2.6 0.00 0.00 0.00 50 101.2
20260507092322 64 297 2.6 2.6 0.00 0.00 0.00 50 101.2
20260507092216 64 297 2.6 2.6 0.00 0.00 0.00 50 101.2
20260507092109 64 297 2.6 2.6 0.00 0.00 0.00 50 101.2
20260507092003 64 297 2.6 2.6 0.00 0.00 0.00 50 101.2
20260507091857 64 297 2.6 3.5 0.00 0.00 0.00 50 101.2
20260507091750 64 297 2.6 3.5 0.00 0.00 0.00 50 101.2
20260507091644 64 297 2.6 3.5 0.00 0.00 0.00 50 101.2
20260507091538 64 297 2.6 3.5 0.00 0.00 0.00 50 101.2
20260507091432 64 297 2.6 3.5 0.00 0.00 0.00 50 101.2
20260507091325 64 297 2.6 3.5 0.00 0.00 0.00 50 101.2
20260507091219 64 297 2.6 3.5 0.00 0.00 0.00 50 101.2
20260507091113 64 297 2.6 3.5 0.00 0.00 0.00 50 101.2
20260507091007 64 297 2.6 3.5 0.00 0.00 0.00 50 101.2
20260507090901 64 297 2.6 3.5 0.00 0.00 0.00 50 101.2
20260507090754 64 297 2.6 3.5 0.00 0.00 0.00 50 101.3
20260507090647 64 297 2.6 3.5 0.00 0.00 0.00 50 101.3
20260507090541 64 297 2.6 3.5 0.00 0.00 0.00 50 101.3
20260507090435 64 297 2.6 3.5 0.00 0.00 0.00 50 101.3
20260507090323 64 297 2.6 3.5 0.00 0.00 0.00 50 101.3
20260507090217 64 297 2.6 3.5 0.00 0.00 0.00 50 101.3
20260507090111 61 200 2.6 0.0 0.00 0.00 0.00 74 101.3
20260507090005 61 200 2.6 0.0 0.00 0.00 0.00 74 101.3
20260507085858 61 200 2.6 0.0 0.00 0.00 0.00 74 101.3
20260507085752 61 200 2.6 0.0 0.00 0.00 0.00 74 101.3
20260507085646 61 200 2.6 0.0 0.00 0.00 0.00 74 101.3
20260507085540 61 200 2.6 0.0 0.00 0.00 0.00 74 101.3
20260507085433 61 200 2.6 0.0 0.00 0.00 0.00 74 101.3
20260507085327 60 200 2.6 0.0 0.00 0.00 0.00 75 101.3
20260507085221 60 200 2.6 0.0 0.00 0.00 0.00 75 101.3
20260507085115 60 200 2.6 0.0 0.00 0.00 0.00 75 101.3
20260507085008 60 200 2.6 0.0 0.00 0.00 0.00 75 101.3
20260507084902 60 200 2.6 0.0 0.00 0.00 0.00 75 101.3
20260507084756 60 200 2.6 0.0 0.00 0.00 0.00 75 101.3
20260507084650 60 200 2.6 0.0 0.00 0.00 0.00 75 101.3
20260507084543 60 200 2.6 0.0 0.00 0.00 0.00 75 101.3
20260507084437 60 200 2.6 0.0 0.00 0.00 0.00 75 101.3
20260507084331 60 200 2.6 0.0 0.00 0.00 0.00 75 101.3
20260507084225 59 200 2.6 0.0 0.00 0.00 0.00 74 101.3
20260507084119 59 200 2.6 0.0 0.00 0.00 0.00 74 101.3
20260507084013 59 200 2.6 0.0 0.00 0.00 0.00 74 101.3
20260507083906 59 200 2.6 0.0 0.00 0.00 0.00 74 101.3
20260507083800 59 200 2.6 0.0 0.00 0.00 0.00 74 101.3
20260507083654 59 200 2.6 0.0 0.00 0.00 0.00 74 101.3
20260507083548 59 200 2.6 0.0 0.00 0.00 0.00 74 101.3
20260507083441 59 200 2.6 0.0 0.00 0.00 0.00 74 101.3
20260507083335 59 200 2.6 0.0 0.00 0.00 0.00 74 101.3
20260507083229 59 200 2.6 0.0 0.00 0.00 0.00 74 101.3
20260507083123 59 200 2.6 0.0 0.00 0.00 0.00 77 101.3
20260507083016 59 200 2.6 0.0 0.00 0.00 0.00 77 101.3
20260507082910 59 200 2.6 0.0 0.00 0.00 0.00 77 101.3
20260507082804 59 200 2.6 0.0 0.00 0.00 0.00 77 101.3
20260507082658 59 200 2.6 0.0 0.00 0.00 0.00 75 101.3
20260507082552 59 200 2.6 0.0 0.00 0.00 0.00 75 101.3
20260507082445 59 200 2.6 0.0 0.00 0.00 0.00 75 101.3
20260507082339 59 200 2.6 0.0 0.00 0.00 0.00 75 101.3
20260507082233 59 200 2.6 0.0 0.00 0.00 0.00 75 101.3
20260507082127 59 200 2.6 0.0 0.00 0.00 0.00 75 101.3
20260507082020 59 200 2.6 0.0 0.00 0.00 0.00 75 101.3
20260507081914 59 200 2.6 0.0 0.00 0.00 0.00 75 101.3
20260507081808 59 200 2.6 0.0 0.00 0.00 0.00 75 101.3
20260507081702 59 200 2.6 0.0 0.00 0.00 0.00 75 101.3
20260507081556 58 200 2.6 0.0 0.00 0.00 0.00 75 101.3
20260507081449 58 200 2.6 0.0 0.00 0.00 0.00 75 101.3
20260507081343 58 200 2.6 0.0 0.00 0.00 0.00 75 101.3
20260507081237 58 200 2.6 0.0 0.00 0.00 0.00 75 101.3
20260507081131 58 200 2.6 0.0 0.00 0.00 0.00 75 101.3
20260507081025 58 200 2.6 0.0 0.00 0.00 0.00 75 101.3
20260507080918 58 200 2.6 0.0 0.00 0.00 0.00 75 101.3
20260507080812 58 200 2.6 0.0 0.00 0.00 0.00 75 101.3
20260507080706 58 200 2.6 0.0 0.00 0.00 0.00 75 101.3
20260507080600 58 200 2.6 0.0 0.00 0.00 0.00 75 101.3
20260507080454 57 200 2.6 0.0 0.00 0.00 0.00 75 101.3
20260507080347 57 200 2.6 0.0 0.00 0.00 0.00 75 101.3
20260507080241 57 200 2.6 0.0 0.00 0.00 0.00 75 101.3
20260507080135 57 200 2.6 0.0 0.00 0.00 0.00 75 101.3
20260507080024 57 200 2.6 0.0 0.00 0.00 0.00 75 101.3
20260507075917 57 200 2.6 0.0 0.00 0.00 0.00 75 101.3
20260507075558 57 200 2.6 0.0 0.00 0.00 0.00 75 101.3
20260507075452 57 200 2.6 0.0 0.00 0.00 0.00 75 101.3
20260507075346 57 200 2.6 0.0 0.00 0.00 0.00 75 101.3
20260507075240 57 200 2.6 0.0 0.00 0.00 0.00 75 101.3
20260507075134 57 200 2.6 0.0 0.00 0.00 0.00 75 101.3
20260507075027 57 200 2.6 0.0 0.00 0.00 0.00 75 101.3
20260507074921 57 200 2.6 0.0 0.00 0.00 0.00 74 101.3
20260507074815 57 200 2.6 0.0 0.00 0.00 0.00 74 101.3
20260507074709 57 200 2.6 0.0 0.00 0.00 0.00 74 101.3
20260507074602 57 200 2.6 0.0 0.00 0.00 0.00 74 101.3
20260507074456 57 200 2.6 0.0 0.00 0.00 0.00 74 101.3
20260507074350 57 200 2.6 0.0 0.00 0.00 0.00 74 101.3
20260507074243 57 200 2.6 0.0 0.00 0.00 0.00 74 101.3
20260507074137 57 200 2.6 0.0 0.00 0.00 0.00 74 101.3
20260507074031 57 200 2.6 0.0 0.00 0.00 0.00 72 101.3
20260507073925 57 200 2.6 0.0 0.00 0.00 0.00 72 101.3
20260507073819 57 200 2.6 0.0 0.00 0.00 0.00 72 101.3
20260507073712 57 200 2.6 0.0 0.00 0.00 0.00 72 101.3
20260507073606 57 200 2.6 0.0 0.00 0.00 0.00 72 101.3
20260507073500 57 200 2.6 0.0 0.00 0.00 0.00 72 101.3
20260507073354 57 200 2.6 0.0 0.00 0.00 0.00 72 101.3
20260507073248 57 200 2.6 0.0 0.00 0.00 0.00 72 101.3
20260507073141 57 200 2.6 0.0 0.00 0.00 0.00 72 101.3
20260507073035 57 200 2.6 0.0 0.00 0.00 0.00 72 101.3
20260507072929 57 200 2.6 0.0 0.00 0.00 0.00 67 101.3
20260507072823 57 200 2.6 0.0 0.00 0.00 0.00 67 101.3
20260507072717 57 200 2.6 0.0 0.00 0.00 0.00 67 101.3
20260507072610 57 200 2.6 0.0 0.00 0.00 0.00 67 101.3
20260507072504 57 200 2.6 0.0 0.00 0.00 0.00 67 101.3
20260507072358 57 200 2.6 0.0 0.00 0.00 0.00 67 101.3
20260507072252 57 200 2.6 0.0 0.00 0.00 0.00 67 101.3
20260507072145 57 200 2.6 0.0 0.00 0.00 0.00 67 101.3
20260507072039 57 200 2.6 0.0 0.00 0.00 0.00 67 101.3
20260507071933 57 200 2.6 0.0 0.00 0.00 0.00 67 101.3
20260507071827 57 200 2.6 0.0 0.00 0.00 0.00 65 101.4
20260507071721 57 200 2.6 0.0 0.00 0.00 0.00 65 101.4
20260507071614 57 200 2.6 0.0 0.00 0.00 0.00 65 101.4
20260507071508 57 200 2.6 0.0 0.00 0.00 0.00 65 101.4
20260507071402 57 200 2.6 0.0 0.00 0.00 0.00 65 101.4
20260507071256 57 200 2.6 0.0 0.00 0.00 0.00 65 101.4
20260507071150 57 200 2.6 0.0 0.00 0.00 0.00 65 101.4
20260507071043 57 200 2.6 0.0 0.00 0.00 0.00 65 101.4
20260507070937 57 200 2.6 0.0 0.00 0.00 0.00 65 101.4
20260507070831 57 200 2.6 0.0 0.00 0.00 0.00 65 101.4
20260507070725 57 200 2.6 0.0 0.00 0.00 0.00 66 101.4
20260507070618 57 200 2.6 0.0 0.00 0.00 0.00 67 101.3
20260507070512 57 200 2.6 0.0 0.00 0.00 0.00 67 101.3
20260507070406 57 200 2.6 0.0 0.00 0.00 0.00 67 101.3
20260507070300 57 200 2.6 0.0 0.00 0.00 0.00 67 101.3
20260507070154 56 200 2.6 0.0 0.00 0.00 0.00 71 101.4
20260507070047 56 200 2.6 0.0 0.00 0.00 0.00 71 101.4
20260507065941 56 200 2.6 0.0 0.00 0.00 0.00 71 101.4
20260507065835 56 200 2.6 0.0 0.00 0.00 0.00 71 101.4
20260507065724 56 200 2.6 0.0 0.00 0.00 0.00 71 101.4
20260507065618 56 200 2.6 0.0 0.00 0.00 0.00 71 101.4
20260507065511 56 200 2.6 0.0 0.00 0.00 0.00 71 101.4
20260507065405 56 200 2.6 0.0 0.00 0.00 0.00 71 101.4
20260507065259 56 200 2.6 0.0 0.00 0.00 0.00 71 101.4
20260507065153 56 200 2.6 0.0 0.00 0.00 0.00 71 101.4
20260507065046 56 200 2.6 0.0 0.00 0.00 0.00 71 101.4
20260507064940 56 200 2.6 0.0 0.00 0.00 0.00 71 101.4
20260507064834 56 200 2.6 0.0 0.00 0.00 0.00 71 101.4
20260507064728 56 200 2.6 0.0 0.00 0.00 0.00 71 101.4
20260507064621 56 200 2.6 0.0 0.00 0.00 0.00 71 101.4
20260507064515 56 200 2.6 0.0 0.00 0.00 0.00 71 101.4
20260507064409 56 200 2.6 0.0 0.00 0.00 0.00 71 101.4
20260507064303 55 200 2.6 0.0 0.00 0.00 0.00 72 101.4
20260507064157 55 200 2.6 0.0 0.00 0.00 0.00 72 101.4
20260507064050 55 200 2.6 0.0 0.00 0.00 0.00 72 101.4
20260507063944 55 200 2.6 0.0 0.00 0.00 0.00 72 101.4
20260507063838 55 200 2.6 0.0 0.00 0.00 0.00 72 101.4
20260507063732 55 200 2.6 0.0 0.00 0.00 0.00 72 101.4
20260507063625 55 200 2.6 0.0 0.00 0.00 0.00 72 101.4
20260507063519 55 200 2.6 0.0 0.00 0.00 0.00 72 101.4
20260507063413 55 200 2.6 0.0 0.00 0.00 0.00 72 101.4
20260507063306 55 200 2.6 0.0 0.00 0.00 0.00 72 101.4
20260507063200 55 200 2.6 0.0 0.00 0.00 0.00 73 101.3
20260507063054 55 200 2.6 0.0 0.00 0.00 0.00 73 101.3
20260507062948 55 200 2.6 0.0 0.00 0.00 0.00 73 101.3
20260507062842 55 200 2.6 0.0 0.00 0.00 0.00 73 101.3
20260507062736 55 200 2.6 0.0 0.00 0.00 0.00 73 101.3
20260507062629 55 200 2.6 0.0 0.00 0.00 0.00 73 101.3
20260507062523 55 200 2.6 0.0 0.00 0.00 0.00 73 101.3
20260507062417 55 200 2.6 0.0 0.00 0.00 0.00 73 101.3
20260507062310 55 200 2.6 0.0 0.00 0.00 0.00 73 101.3
20260507062204 55 200 2.6 0.0 0.00 0.00 0.00 73 101.3
20260507062058 55 200 3.5 0.0 0.00 0.00 0.00 74 101.3
20260507061952 55 200 3.5 0.0 0.00 0.00 0.00 74 101.3
20260507061845 55 200 2.6 0.0 0.00 0.00 0.00 74 101.3
20260507061739 55 200 2.6 0.0 0.00 0.00 0.00 74 101.3
20260507061633 55 200 2.6 0.0 0.00 0.00 0.00 74 101.3
20260507061527 55 200 2.6 0.0 0.00 0.00 0.00 74 101.3
20260507061420 55 200 2.6 0.0 0.00 0.00 0.00 74 101.3
20260507061314 55 200 2.6 0.0 0.00 0.00 0.00 74 101.3
20260507061208 55 200 3.5 0.0 0.00 0.00 0.00 74 101.3
20260507061102 55 200 3.5 0.0 0.00 0.00 0.00 74 101.3
20260507060955 54 200 4.3 0.0 0.00 0.00 0.00 75 101.3
20260507060849 54 200 4.3 0.0 0.00 0.00 0.00 75 101.3
20260507060743 54 200 4.3 0.0 0.00 0.00 0.00 75 101.3
20260507060637 54 200 4.3 0.0 0.00 0.00 0.00 75 101.3
20260507060530 54 200 4.3 0.0 0.00 0.00 0.00 75 101.3
20260507060424 55 200 3.5 0.0 0.00 0.00 0.00 74 101.3
20260507060318 55 200 3.5 0.0 0.00 0.00 0.00 74 101.3
20260507060212 55 200 3.5 0.0 0.00 0.00 0.00 74 101.3
20260507060106 54 200 4.3 0.0 0.00 0.00 0.00 75 101.3
20260507055959 54 200 4.3 0.0 0.00 0.00 0.00 75 101.3
20260507055853 54 200 5.2 0.0 0.00 0.00 0.00 76 101.3
20260507055747 54 200 5.2 0.0 0.00 0.00 0.00 76 101.3
20260507055641 54 200 5.2 0.0 0.00 0.00 0.00 76 101.3
20260507055534 54 200 5.2 0.0 0.00 0.00 0.00 76 101.3
20260507055423 54 200 5.2 0.0 0.00 0.00 0.00 76 101.3
20260507055317 54 200 5.2 0.0 0.00 0.00 0.00 76 101.3
20260507055211 54 200 5.2 0.0 0.00 0.00 0.00 76 101.3
20260507055104 54 200 5.2 0.0 0.00 0.00 0.00 76 101.3
20260507054958 54 200 5.2 0.0 0.00 0.00 0.00 76 101.3
20260507054852 54 200 6.1 0.0 0.00 0.00 0.00 77 101.3
20260507054746 54 200 6.1 0.0 0.00 0.00 0.00 77 101.3
20260507054639 54 200 6.1 0.0 0.00 0.00 0.00 77 101.3
20260507054533 54 200 6.1 0.0 0.00 0.00 0.00 77 101.3
20260507054427 54 200 6.1 0.0 0.00 0.00 0.00 77 101.3
20260507054321 54 200 6.1 0.0 0.00 0.00 0.00 77 101.3
20260507054215 54 200 6.1 0.0 0.00 0.00 0.00 77 101.3
20260507054109 54 200 6.1 0.0 0.00 0.00 0.00 77 101.3
20260507054002 54 200 6.1 0.0 0.00 0.00 0.00 77 101.3
20260507053856 54 200 6.1 0.0 0.00 0.00 0.00 77 101.3
20260507053750 53 200 7.0 0.0 0.00 0.00 0.00 82 101.2
20260507053643 53 200 7.0 0.0 0.00 0.00 0.00 82 101.2
20260507053537 53 200 7.0 0.0 0.00 0.00 0.00 82 101.2
20260507053431 53 200 7.0 0.0 0.00 0.00 0.00 82 101.2
20260507053325 53 200 7.0 0.0 0.00 0.00 0.00 82 101.2
20260507053219 53 200 7.0 0.0 0.00 0.00 0.00 82 101.2
20260507053112 53 200 7.0 0.0 0.00 0.00 0.00 82 101.2
20260507053006 53 200 7.0 0.0 0.00 0.00 0.00 82 101.2
20260507052900 53 200 7.0 0.0 0.00 0.00 0.00 82 101.2
20260507052754 53 200 7.0 0.0 0.00 0.00 0.00 82 101.2
20260507052647 53 200 7.0 0.0 0.00 0.00 0.00 82 101.2
20260507052541 53 200 7.0 0.0 0.00 0.00 0.00 82 101.2
20260507052435 53 200 7.0 0.0 0.00 0.00 0.00 82 101.2
20260507052328 53 200 7.0 0.0 0.00 0.00 0.00 81 101.2
20260507052222 53 200 7.0 0.0 0.00 0.00 0.00 81 101.2
20260507052116 53 200 7.0 0.0 0.00 0.00 0.00 81 101.2
20260507052010 53 200 7.0 0.0 0.00 0.00 0.00 81 101.2
20260507051904 53 200 7.0 0.0 0.00 0.00 0.00 81 101.2
20260507051757 53 200 7.0 0.0 0.00 0.00 0.00 81 101.2
20260507051651 53 200 7.0 0.0 0.00 0.00 0.00 81 101.2
20260507051545 53 200 7.0 0.0 0.00 0.00 0.00 81 101.2
20260507051332 53 200 7.0 0.0 0.00 0.00 0.00 81 101.2
20260507051226 53 200 5.2 0.0 0.00 0.00 0.00 78 101.3
20260507051120 53 200 5.2 0.0 0.00 0.00 0.00 78 101.3
20260507051013 53 200 5.2 0.0 0.00 0.00 0.00 78 101.3
20260507050907 53 200 5.2 0.0 0.00 0.00 0.00 78 101.3
20260507050801 53 200 5.2 0.0 0.00 0.00 0.00 78 101.3
20260507050655 53 200 5.2 0.0 0.00 0.00 0.00 78 101.3
20260507050549 53 200 5.2 0.0 0.00 0.00 0.00 78 101.3
20260507050442 53 200 5.2 0.0 0.00 0.00 0.00 78 101.3
20260507050336 53 200 6.1 0.0 0.00 0.00 0.00 82 101.3
20260507050230 53 200 5.2 0.0 0.00 0.00 0.00 78 101.3
20260507050124 53 200 6.1 0.0 0.00 0.00 0.00 82 101.3
20260507050017 53 200 6.1 0.0 0.00 0.00 0.00 82 101.3
20260507045911 53 200 6.1 0.0 0.00 0.00 0.00 82 101.3
20260507045805 53 200 6.1 0.0 0.00 0.00 0.00 82 101.3
20260507045659 53 200 6.1 0.0 0.00 0.00 0.00 82 101.3
20260507045553 53 200 6.1 0.0 0.00 0.00 0.00 82 101.3
20260507045446 53 200 6.1 0.0 0.00 0.00 0.00 82 101.3
20260507045340 53 200 6.1 0.0 0.00 0.00 0.00 82 101.3
20260507045234 53 200 6.1 0.0 0.00 0.00 0.00 82 101.3
20260507045128 53 200 6.1 0.0 0.00 0.00 0.00 82 101.3
20260507045022 53 200 6.1 0.0 0.00 0.00 0.00 82 101.3
20260507044915 53 200 6.1 0.0 0.00 0.00 0.00 82 101.3
20260507044809 53 200 6.1 0.0 0.00 0.00 0.00 82 101.3
20260507044703 53 200 6.1 0.0 0.00 0.00 0.00 82 101.3
20260507044557 53 200 6.1 0.0 0.00 0.00 0.00 82 101.3
20260507044451 53 200 6.1 0.0 0.00 0.00 0.00 82 101.3
20260507044344 53 200 6.1 0.0 0.00 0.00 0.00 82 101.3
20260507044238 53 200 6.1 0.0 0.00 0.00 0.00 82 101.3
20260507044132 53 200 6.1 0.0 0.00 0.00 0.00 82 101.3
20260507044026 53 200 6.1 0.0 0.00 0.00 0.00 82 101.3
20260507043920 53 200 6.1 0.0 0.00 0.00 0.00 82 101.3
20260507043813 53 200 6.1 0.0 0.00 0.00 0.00 82 101.3
20260507043707 53 200 6.1 0.0 0.00 0.00 0.00 82 101.3
20260507043601 53 200 6.1 0.0 0.00 0.00 0.00 82 101.3
20260507043455 53 200 6.1 0.0 0.00 0.00 0.00 82 101.2
20260507043348 53 200 6.1 0.0 0.00 0.00 0.00 82 101.2
20260507043242 53 200 6.1 0.0 0.00 0.00 0.00 82 101.2
20260507043136 53 200 6.1 0.0 0.00 0.00 0.00 82 101.2
20260507043030 53 200 6.1 0.0 0.00 0.00 0.00 82 101.2
20260507042923 53 200 6.1 0.0 0.00 0.00 0.00 82 101.2
20260507042817 53 200 6.1 0.0 0.00 0.00 0.00 82 101.2
20260507042711 53 200 6.1 0.0 0.00 0.00 0.00 82 101.2
20260507042605 53 200 6.1 0.0 0.00 0.00 0.00 82 101.2
20260507042459 53 200 6.1 0.0 0.00 0.00 0.00 82 101.2
20260507042352 53 200 6.1 0.0 0.00 0.00 0.00 81 101.2
20260507042246 53 200 6.1 0.0 0.00 0.00 0.00 81 101.2
20260507042140 53 200 6.1 0.0 0.00 0.00 0.00 81 101.2
20260507042034 53 200 6.1 0.0 0.00 0.00 0.00 81 101.2
20260507041927 53 200 6.1 0.0 0.00 0.00 0.00 81 101.2
20260507041821 53 200 6.1 0.0 0.00 0.00 0.00 81 101.2
20260507041715 53 200 6.1 0.0 0.00 0.00 0.00 81 101.2
20260507041609 53 200 6.1 0.0 0.00 0.00 0.00 81 101.2
20260507041502 53 200 6.1 0.0 0.00 0.00 0.00 81 101.2
20260507041356 53 200 6.1 0.0 0.00 0.00 0.00 81 101.2
20260507041250 53 210 5.2 0.0 0.00 0.00 0.00 77 101.3
20260507041144 53 210 5.2 0.0 0.00 0.00 0.00 77 101.3
20260507041037 53 210 5.2 0.0 0.00 0.00 0.00 77 101.3
20260507040931 53 210 5.2 0.0 0.00 0.00 0.00 77 101.3
20260507040825 53 210 5.2 0.0 0.00 0.00 0.00 77 101.3
20260507040718 53 210 5.2 0.0 0.00 0.00 0.00 77 101.3
20260507040612 53 210 5.2 0.0 0.00 0.00 0.00 77 101.3
20260507040506 53 210 5.2 0.0 0.00 0.00 0.00 77 101.3
20260507040400 53 210 5.2 0.0 0.00 0.00 0.00 77 101.3
20260507040254 53 210 5.2 0.0 0.00 0.00 0.00 77 101.3
20260507040147 53 210 6.1 0.0 0.00 0.00 0.00 82 101.3
20260507040041 53 210 6.1 0.0 0.00 0.00 0.00 82 101.3
20260507035935 53 210 6.1 0.0 0.00 0.00 0.00 81 101.3
20260507035828 53 210 6.1 0.0 0.00 0.00 0.00 81 101.3
20260507035722 53 210 6.1 0.0 0.00 0.00 0.00 81 101.3
20260507035616 53 210 6.1 0.0 0.00 0.00 0.00 81 101.3
20260507035510 53 210 6.1 0.0 0.00 0.00 0.00 81 101.3
20260507035403 53 210 6.1 0.0 0.00 0.00 0.00 81 101.3
20260507035257 53 210 6.1 0.0 0.00 0.00 0.00 81 101.3
20260507035151 53 210 6.1 0.0 0.00 0.00 0.00 81 101.3
20260507035045 53 210 6.1 0.0 0.00 0.00 0.00 81 101.3
20260507034939 53 210 6.1 0.0 0.00 0.00 0.00 81 101.3
20260507034833 53 210 6.1 0.0 0.00 0.00 0.00 81 101.3
20260507034726 53 210 6.1 0.0 0.00 0.00 0.00 81 101.3
20260507034620 53 210 6.1 0.0 0.00 0.00 0.00 81 101.3
20260507034514 53 210 6.1 0.0 0.00 0.00 0.00 81 101.3
20260507034408 53 210 6.1 0.0 0.00 0.00 0.00 81 101.3
20260507034302 53 210 6.1 0.0 0.00 0.00 0.00 81 101.3
20260507034155 53 210 6.1 0.0 0.00 0.00 0.00 81 101.3
20260507034049 53 210 6.1 0.0 0.00 0.00 0.00 81 101.3
20260507033943 53 210 6.1 0.0 0.00 0.00 0.00 81 101.3
20260507033837 53 210 6.1 0.0 0.00 0.00 0.00 81 101.3
20260507033730 53 210 6.1 0.0 0.00 0.00 0.00 81 101.3
20260507033624 53 210 6.1 0.0 0.00 0.00 0.00 81 101.3
20260507033518 53 210 6.1 0.0 0.00 0.00 0.00 81 101.3
20260507033412 53 210 6.1 0.0 0.00 0.00 0.00 80 101.2
20260507033306 53 210 6.1 0.0 0.00 0.00 0.00 80 101.2
20260507033159 53 210 6.1 0.0 0.00 0.00 0.00 80 101.2
20260507033053 53 210 6.1 0.0 0.00 0.00 0.00 80 101.2
20260507032947 53 210 6.1 0.0 0.00 0.00 0.00 80 101.2
20260507032840 53 210 6.1 0.0 0.00 0.00 0.00 80 101.2
20260507032734 53 210 6.1 0.0 0.00 0.00 0.00 79 101.2
20260507032628 53 210 6.1 0.0 0.00 0.00 0.00 79 101.2
20260507032522 53 210 6.1 0.0 0.00 0.00 0.00 79 101.2
20260507032416 53 210 6.1 0.0 0.00 0.00 0.00 79 101.2
20260507032309 53 210 6.1 0.0 0.00 0.00 0.00 79 101.2
20260507032203 53 210 6.1 0.0 0.00 0.00 0.00 79 101.2
20260507032057 53 210 6.1 0.0 0.00 0.00 0.00 79 101.2
20260507031951 53 210 6.1 0.0 0.00 0.00 0.00 79 101.2
20260507031845 53 210 6.1 0.0 0.00 0.00 0.00 79 101.2
20260507031738 54 200 5.2 0.0 0.00 0.00 0.00 75 101.1
20260507031632 54 200 5.2 0.0 0.00 0.00 0.00 75 101.1
20260507031526 54 200 5.2 0.0 0.00 0.00 0.00 75 101.1
20260507031420 54 200 5.2 0.0 0.00 0.00 0.00 75 101.1
20260507031314 54 200 5.2 0.0 0.00 0.00 0.00 75 101.1
20260507031207 54 200 5.2 0.0 0.00 0.00 0.00 75 101.1
20260507031101 54 200 5.2 0.0 0.00 0.00 0.00 75 101.1
20260507030955 54 200 5.2 0.0 0.00 0.00 0.00 75 101.1
20260507030849 54 200 5.2 0.0 0.00 0.00 0.00 75 101.1
20260507030742 54 200 5.2 0.0 0.00 0.00 0.00 75 101.1
20260507030636 54 200 6.1 0.0 0.00 0.00 0.00 81 101.3
20260507030530 54 200 6.1 0.0 0.00 0.00 0.00 81 101.3
20260507030424 54 200 6.1 0.0 0.00 0.00 0.00 81 101.3
20260507030317 54 200 6.1 0.0 0.00 0.00 0.00 81 101.3
20260507030211 54 200 6.1 0.0 0.00 0.00 0.00 81 101.3
20260507030105 54 200 6.1 0.0 0.00 0.00 0.00 81 101.3
20260507025959 54 200 6.1 0.0 0.00 0.00 0.00 82 101.3
20260507025853 54 200 6.1 0.0 0.00 0.00 0.00 82 101.3
20260507025746 54 200 6.1 0.0 0.00 0.00 0.00 82 101.3
20260507025640 54 200 6.1 0.0 0.00 0.00 0.00 82 101.3
20260507025534 54 200 6.1 0.0 0.00 0.00 0.00 82 101.3
20260507025427 54 200 6.1 0.0 0.00 0.00 0.00 82 101.3
20260507025321 54 200 6.1 0.0 0.00 0.00 0.00 82 101.3
20260507025215 54 200 6.1 0.0 0.00 0.00 0.00 82 101.3
20260507025109 54 200 6.1 0.0 0.00 0.00 0.00 82 101.3
20260507025002 54 200 6.1 0.0 0.00 0.00 0.00 82 101.3
20260507024856 54 200 6.1 0.0 0.00 0.00 0.00 82 101.3
20260507024750 54 200 6.1 0.0 0.00 0.00 0.00 82 101.3
20260507024644 54 200 6.1 0.0 0.00 0.00 0.00 82 101.3
20260507024538 54 200 6.1 0.0 0.00 0.00 0.00 82 101.3
20260507024432 54 200 6.1 0.0 0.00 0.00 0.00 82 101.3
20260507024325 54 200 6.1 0.0 0.00 0.00 0.00 82 101.3
20260507024219 54 200 6.1 0.0 0.00 0.00 0.00 82 101.3
20260507024113 54 200 6.1 0.0 0.00 0.00 0.00 81 101.3
20260507024007 54 200 6.1 0.0 0.00 0.00 0.00 81 101.3
20260507023900 54 200 6.1 0.0 0.00 0.00 0.00 81 101.3
20260507023754 54 200 6.1 0.0 0.00 0.00 0.00 81 101.3
20260507023648 54 200 6.1 0.0 0.00 0.00 0.00 81 101.3
20260507023542 54 200 6.1 0.0 0.00 0.00 0.00 81 101.3
20260507023436 54 200 6.1 0.0 0.00 0.00 0.00 81 101.3
20260507023329 54 200 6.1 0.0 0.00 0.00 0.00 81 101.3
20260507023223 54 200 6.1 0.0 0.00 0.00 0.00 81 101.3
20260507023117 54 200 6.1 0.0 0.00 0.00 0.00 81 101.3
20260507023011 54 200 6.1 0.0 0.00 0.00 0.00 81 101.3
20260507022904 54 170 7.0 0.0 0.00 0.00 0.00 79 101.2
20260507022758 54 170 7.0 0.0 0.00 0.00 0.00 79 101.2
20260507022652 54 170 7.0 0.0 0.00 0.00 0.00 79 101.2
20260507022545 54 170 7.0 0.0 0.00 0.00 0.00 79 101.2
20260507022439 54 170 7.0 0.0 0.00 0.00 0.00 79 101.2
20260507022333 54 170 7.0 0.0 0.00 0.00 0.00 79 101.2
20260507022227 54 170 7.0 0.0 0.00 0.00 0.00 79 101.2
20260507022120 54 170 7.0 0.0 0.00 0.00 0.00 79 101.2
20260507022014 54 170 7.0 0.0 0.00 0.00 0.00 79 101.2
20260507021908 54 170 7.0 0.0 0.00 0.00 0.00 79 101.2
20260507021802 54 170 7.8 0.0 0.00 0.00 0.00 75 101.2
20260507021655 54 170 7.8 0.0 0.00 0.00 0.00 75 101.2
20260507021549 54 170 7.8 0.0 0.00 0.00 0.00 75 101.2
20260507021443 54 170 7.8 0.0 0.00 0.00 0.00 75 101.2
20260507021337 54 170 7.8 0.0 0.00 0.00 0.00 75 101.2
20260507021231 54 170 7.8 0.0 0.00 0.00 0.00 75 101.2
20260507021124 54 170 7.8 0.0 0.00 0.00 0.00 75 101.2
20260507021018 54 170 7.8 0.0 0.00 0.00 0.00 75 101.2
20260507020912 54 170 8.7 0.0 0.00 0.00 0.00 81 101.3
20260507020806 54 170 8.7 0.0 0.00 0.00 0.00 81 101.3
20260507020700 54 170 8.7 0.0 0.00 0.00 0.00 81 101.3
20260507020553 54 170 8.7 0.0 0.00 0.00 0.00 81 101.3
20260507020447 54 170 8.7 0.0 0.00 0.00 0.00 81 101.3
20260507020341 54 170 8.7 0.0 0.00 0.00 0.00 81 101.3
20260507020235 54 170 8.7 0.0 0.00 0.00 0.00 81 101.3
20260507020128 54 170 8.7 0.0 0.00 0.00 0.00 81 101.3
20260507020022 54 170 8.7 0.0 0.00 0.00 0.00 81 101.3
20260507015916 54 170 8.7 0.0 0.00 0.00 0.00 81 101.3
20260507015810 54 170 8.7 0.0 0.00 0.00 0.00 81 101.3
20260507015703 54 170 8.7 0.0 0.00 0.00 0.00 81 101.3
20260507015557 54 170 8.7 0.0 0.00 0.00 0.00 81 101.3
20260507015451 54 170 8.7 0.0 0.00 0.00 0.00 81 101.3
20260507015345 54 170 8.7 0.0 0.00 0.00 0.00 81 101.3
20260507015239 54 170 8.7 0.0 0.00 0.00 0.00 81 101.3
20260507015132 54 170 8.7 0.0 0.00 0.00 0.00 81 101.3
20260507015026 54 170 8.7 0.0 0.00 0.00 0.00 81 101.3
20260507014920 54 170 8.7 0.0 0.00 0.00 0.00 81 101.3
20260507014814 54 170 8.7 0.0 0.00 0.00 0.00 81 101.3
20260507014708 54 170 8.7 0.0 0.00 0.00 0.00 81 101.3
20260507014601 54 170 8.7 0.0 0.00 0.00 0.00 81 101.3
20260507014455 54 170 8.7 0.0 0.00 0.00 0.00 81 101.3
20260507014348 54 170 8.7 0.0 0.00 0.00 0.00 81 101.3
20260507014242 54 170 8.7 0.0 0.00 0.00 0.00 81 101.3
20260507014135 54 170 8.7 0.0 0.00 0.00 0.00 81 101.3
20260507014029 54 170 8.7 0.0 0.00 0.00 0.00 81 101.3
20260507013923 54 170 8.7 0.0 0.00 0.00 0.00 81 101.3
20260507013817 54 170 8.7 0.0 0.00 0.00 0.00 81 101.3
20260507013710 54 170 8.7 0.0 0.00 0.00 0.00 81 101.3
20260507013604 54 170 8.7 0.0 0.00 0.00 0.00 81 101.3
20260507013458 54 170 8.7 0.0 0.00 0.00 0.00 81 101.3
20260507013352 54 170 8.7 0.0 0.00 0.00 0.00 81 101.3
20260507013245 54 170 8.7 0.0 0.00 0.00 0.00 81 101.3
20260507013139 54 170 8.7 0.0 0.00 0.00 0.00 80 101.3
20260507013032 54 170 8.7 0.0 0.00 0.00 0.00 80 101.3
20260507012926 54 170 8.7 0.0 0.00 0.00 0.00 80 101.3
20260507012820 54 170 8.7 0.0 0.00 0.00 0.00 80 101.3
20260507012714 54 170 8.7 0.0 0.00 0.00 0.00 78 101.2
20260507012607 54 170 8.7 0.0 0.00 0.00 0.00 78 101.2
20260507012501 54 170 8.7 0.0 0.00 0.00 0.00 78 101.2
20260507012355 54 170 8.7 0.0 0.00 0.00 0.00 78 101.2
20260507012249 54 170 8.7 0.0 0.00 0.00 0.00 78 101.2
20260507012143 54 170 8.7 0.0 0.00 0.00 0.00 78 101.2
20260507012036 54 170 8.7 0.0 0.00 0.00 0.00 78 101.2
20260507011930 54 170 8.7 0.0 0.00 0.00 0.00 78 101.2
20260507011824 54 170 8.7 0.0 0.00 0.00 0.00 78 101.2
20260507011718 54 190 7.8 0.0 0.00 0.00 0.00 74 101.3
20260507011611 54 190 7.8 0.0 0.00 0.00 0.00 74 101.3
20260507011505 54 190 7.8 0.0 0.00 0.00 0.00 74 101.3
20260507011359 54 190 7.8 0.0 0.00 0.00 0.00 74 101.3
20260507011253 54 190 7.8 0.0 0.00 0.00 0.00 74 101.3
20260507011147 54 190 7.8 0.0 0.00 0.00 0.00 74 101.3
20260507011040 54 190 7.8 0.0 0.00 0.00 0.00 74 101.3
20260507010934 54 190 8.7 0.0 0.00 0.00 0.00 80 101.3
20260507010828 54 190 8.7 0.0 0.00 0.00 0.00 80 101.3
20260507010722 54 190 8.7 0.0 0.00 0.00 0.00 80 101.3
20260507010615 54 190 8.7 0.0 0.00 0.00 0.00 80 101.3
20260507010509 54 190 8.7 0.0 0.00 0.00 0.00 80 101.3
20260507010403 54 190 8.7 0.0 0.00 0.00 0.00 80 101.3
20260507010257 54 190 8.7 0.0 0.00 0.00 0.00 80 101.3
20260507010151 54 190 8.7 0.0 0.00 0.00 0.00 80 101.3
20260507010044 54 190 8.7 0.0 0.00 0.00 0.00 80 101.3
20260507005938 54 190 8.7 0.0 0.00 0.00 0.00 80 101.3
20260507005832 54 190 8.7 0.0 0.00 0.00 0.00 80 101.3
20260507005726 54 190 8.7 0.0 0.00 0.00 0.00 80 101.3
20260507005620 54 190 8.7 0.0 0.00 0.00 0.00 80 101.3
20260507005513 54 190 8.7 0.0 0.00 0.00 0.00 80 101.3
20260507005407 54 190 8.7 0.0 0.00 0.00 0.00 80 101.3
20260507005301 54 190 8.7 0.0 0.00 0.00 0.00 80 101.3
20260507005155 54 190 8.7 0.0 0.00 0.00 0.00 80 101.3
20260507005048 54 190 8.7 0.0 0.00 0.00 0.00 80 101.3
20260507004942 54 190 8.7 0.0 0.00 0.00 0.00 80 101.3
20260507004836 54 190 8.7 0.0 0.00 0.00 0.00 80 101.3
20260507004730 54 190 8.7 0.0 0.00 0.00 0.00 80 101.3
20260507004624 54 190 8.7 0.0 0.00 0.00 0.00 80 101.3
20260507004517 54 190 8.7 0.0 0.00 0.00 0.00 80 101.3
20260507004411 54 190 8.7 0.0 0.00 0.00 0.00 80 101.3
20260507004305 54 190 8.7 0.0 0.00 0.00 0.00 80 101.3
20260507004159 54 190 8.7 0.0 0.00 0.00 0.00 80 101.3
20260507004052 54 190 8.7 0.0 0.00 0.00 0.00 80 101.3
20260507003946 54 190 8.7 0.0 0.00 0.00 0.00 80 101.3
20260507003840 54 190 8.7 0.0 0.00 0.00 0.00 80 101.2
20260507003734 54 190 8.7 0.0 0.00 0.00 0.00 80 101.2
20260507003622 54 190 8.7 0.0 0.00 0.00 0.00 80 101.2
20260507003516 54 190 8.7 0.0 0.00 0.00 0.00 80 101.2
20260507003410 54 190 8.7 0.0 0.00 0.00 0.00 80 101.2
20260507003303 54 190 8.7 0.0 0.00 0.00 0.00 80 101.2
20260507003157 54 190 8.7 0.0 0.00 0.00 0.00 80 101.2
20260507003051 54 190 8.7 0.0 0.00 0.00 0.00 80 101.2
20260507002945 54 190 8.7 0.0 0.00 0.00 0.00 80 101.2
20260507002838 54 190 8.7 0.0 0.00 0.00 0.00 80 101.2
20260507002732 54 190 8.7 0.0 0.00 0.00 0.00 80 101.2
20260507002626 54 190 8.7 0.0 0.00 0.00 0.00 80 101.2
20260507002520 54 190 8.7 0.0 0.00 0.00 0.00 80 101.2
20260507002413 54 190 8.7 0.0 0.00 0.00 0.00 80 101.2
20260507002307 54 190 8.7 0.0 0.00 0.00 0.00 80 101.2
20260507002201 54 190 8.7 0.0 0.00 0.00 0.00 80 101.2
20260507002055 54 190 8.7 0.0 0.00 0.00 0.00 80 101.2
20260507001949 54 190 8.7 0.0 0.00 0.00 0.00 80 101.2
20260507001842 54 190 8.7 0.0 0.00 0.00 0.00 80 101.2
20260507001736 54 190 8.7 0.0 0.00 0.00 0.00 79 101.1
20260507001306 54 180 8.7 0.0 0.00 0.00 0.00 74 101.1
20260507001159 54 180 8.7 0.0 0.00 0.00 0.00 74 101.1
20260507001053 54 180 8.7 0.0 0.00 0.00 0.00 74 101.1
20260507000947 54 180 8.7 0.0 0.00 0.00 0.00 74 101.1
20260507000841 54 180 8.7 0.0 0.00 0.00 0.00 74 101.1
20260507000735 54 180 8.7 0.0 0.00 0.00 0.00 74 101.1
20260507000628 54 180 8.7 0.0 0.00 0.00 0.00 74 101.1
20260507000522 54 180 8.7 0.0 0.00 0.00 0.00 74 101.1
20260507000416 54 180 9.6 0.0 0.00 0.00 0.00 77 101.3
20260507000310 54 180 9.6 0.0 0.00 0.00 0.00 77 101.3
20260507000205 54 180 9.6 0.0 0.00 0.00 0.00 77 101.3
20260507000057 54 180 9.6 0.0 0.00 0.00 0.00 77 101.3
20260506235951 54 180 9.6 0.0 0.00 0.00 0.00 77 101.3
20260506235845 54 180 9.6 0.0 0.00 0.00 0.00 77 101.3
20260506235739 54 180 9.6 0.0 0.00 0.00 0.00 77 101.3
20260506235632 54 180 9.6 0.0 0.00 0.00 0.00 77 101.3
20260506235526 54 180 9.6 0.0 0.00 0.00 0.00 77 101.3
20260506235420 54 180 9.6 0.0 0.00 0.00 0.00 77 101.3
20260506235314 54 180 9.6 0.0 0.00 0.00 0.00 77 101.3
20260506235208 54 180 9.6 0.0 0.00 0.00 0.00 77 101.3
20260506235101 54 180 9.6 0.0 0.00 0.00 0.00 77 101.3
20260506234956 54 180 9.6 0.0 0.00 0.00 0.00 77 101.3
20260506234849 54 180 9.6 0.0 0.00 0.00 0.00 77 101.3
20260506234743 54 180 9.6 0.0 0.00 0.00 0.00 77 101.3
20260506234636 54 180 9.6 0.0 0.00 0.00 0.00 77 101.3
20260506234530 54 180 9.6 0.0 0.00 0.00 0.00 76 101.3
20260506234424 54 180 9.6 0.0 0.00 0.00 0.00 76 101.3
20260506234318 54 180 9.6 0.0 0.00 0.00 0.00 76 101.3
20260506234211 54 180 9.6 0.0 0.00 0.00 0.00 76 101.3
20260506234105 54 180 9.6 0.0 0.00 0.00 0.00 76 101.3
20260506233959 54 180 9.6 0.0 0.00 0.00 0.00 76 101.3
20260506233853 54 180 9.6 0.0 0.00 0.00 0.00 76 101.3
20260506233747 54 180 9.6 0.0 0.00 0.00 0.00 76 101.3
20260506233640 54 180 9.6 0.0 0.00 0.00 0.00 76 101.3
20260506233534 54 180 9.6 0.0 0.00 0.00 0.00 76 101.3
20260506233428 54 180 9.6 0.0 0.00 0.00 0.00 76 101.3
20260506233322 54 180 9.6 0.0 0.00 0.00 0.00 78 101.1
20260506233216 54 180 9.6 0.0 0.00 0.00 0.00 78 101.1
20260506233109 54 180 9.6 0.0 0.00 0.00 0.00 78 101.1
20260506233003 54 180 9.6 0.0 0.00 0.00 0.00 78 101.1
20260506232857 54 180 9.6 0.0 0.00 0.00 0.00 78 101.1
20260506232751 54 180 9.6 0.0 0.00 0.00 0.00 78 101.1
20260506232644 54 180 9.6 0.0 0.00 0.00 0.00 78 101.1
20260506232538 54 180 9.6 0.0 0.00 0.00 0.00 78 101.1
20260506232432 54 180 9.6 0.0 0.00 0.00 0.00 78 101.1
20260506232325 54 180 9.6 0.0 0.00 0.00 0.00 78 101.1
20260506232219 54 180 9.6 0.0 0.00 0.00 0.00 78 101.1
20260506232113 54 180 9.6 0.0 0.00 0.00 0.00 78 101.1
20260506232007 54 180 9.6 0.0 0.00 0.00 0.00 78 101.1
20260506231900 54 180 9.6 0.0 0.00 0.00 0.00 78 101.1
20260506231754 54 180 10.4 0.0 0.00 0.00 0.00 79 101.1
20260506231648 54 180 10.4 0.0 0.00 0.00 0.00 79 101.1
20260506231542 54 180 10.4 0.0 0.00 0.00 0.00 79 101.1
20260506231436 54 180 10.4 0.0 0.00 0.00 0.00 79 101.1
20260506231329 54 180 10.4 0.0 0.00 0.00 0.00 79 101.1
20260506231223 54 180 10.4 0.0 0.00 0.00 0.00 79 101.1
20260506231117 54 180 10.4 0.0 0.00 0.00 0.00 79 101.1
20260506231011 53 180 12.2 0.0 0.00 0.00 0.00 93 101.3
20260506230904 53 180 12.2 0.0 0.00 0.00 0.00 93 101.3
20260506230758 53 180 12.2 0.0 0.00 0.00 0.00 93 101.3
20260506230652 53 180 12.2 0.0 0.00 0.00 0.00 93 101.3
20260506230546 53 180 12.2 0.0 0.00 0.00 0.00 93 101.3
20260506230439 53 180 12.2 0.0 0.00 0.00 0.00 93 101.3
20260506230333 53 180 12.2 0.0 0.00 0.00 0.00 93 101.3
20260506230227 53 180 12.2 0.0 0.00 0.00 0.00 93 101.3
20260506230121 53 180 12.2 0.0 0.00 0.00 0.00 93 101.3
20260506230015 53 180 12.2 0.0 0.00 0.00 0.00 93 101.3
20260506225908 52 180 12.2 0.0 0.00 0.00 0.00 99 101.3
20260506225802 52 180 12.2 0.0 0.00 0.00 0.00 99 101.3
20260506225656 52 180 12.2 0.0 0.00 0.00 0.00 99 101.3
20260506225550 52 180 12.2 0.0 0.00 0.00 0.00 99 101.3
20260506225443 52 180 12.2 0.0 0.00 0.00 0.00 99 101.3
20260506225337 52 180 12.2 0.0 0.00 0.00 0.00 99 101.3
20260506225231 52 180 12.2 0.0 0.00 0.00 0.00 99 101.3
20260506225125 52 180 12.2 0.0 0.00 0.00 0.00 99 101.3
20260506225019 52 180 12.2 0.0 0.00 0.00 0.00 99 101.3
20260506224912 52 180 12.2 0.0 0.00 0.00 0.00 99 101.3
20260506224806 52 180 12.2 0.0 0.00 0.00 0.00 99 101.3
20260506224700 53 180 12.2 0.0 0.00 0.00 0.00 99 101.3
20260506224554 53 180 12.2 0.0 0.00 0.00 0.00 99 101.3
20260506224447 53 180 12.2 0.0 0.00 0.00 0.00 99 101.3
20260506224341 53 180 12.2 0.0 0.00 0.00 0.00 99 101.3
20260506224235 53 180 12.2 0.0 0.00 0.00 0.00 99 101.3
20260506224129 53 180 12.2 0.0 0.00 0.00 0.00 99 101.3
20260506224022 53 180 12.2 0.0 0.00 0.00 0.00 99 101.3
20260506223917 53 180 12.2 0.0 0.00 0.00 0.00 99 101.3
20260506223810 53 180 12.2 0.0 0.00 0.00 0.00 99 101.3
20260506223704 53 180 12.2 0.0 0.00 0.00 0.00 98 101.1
20260506223558 53 180 12.2 0.0 0.00 0.00 0.00 98 101.1
20260506223451 53 180 12.2 0.0 0.00 0.00 0.00 98 101.1
20260506223345 53 180 12.2 0.0 0.00 0.00 0.00 98 101.1
20260506223239 53 180 12.2 0.0 0.00 0.00 0.00 98 101.1
20260506223133 53 180 12.2 0.0 0.00 0.00 0.00 98 101.1
20260506223026 53 180 12.2 0.0 0.00 0.00 0.00 98 101.1
20260506222920 53 180 12.2 0.0 0.00 0.00 0.00 98 101.1
20260506222814 53 180 12.2 0.0 0.00 0.00 0.00 98 101.1
20260506222707 53 180 12.2 0.0 0.00 0.00 0.00 98 101.1
20260506222601 53 180 12.2 0.0 0.00 0.00 0.00 97 101.1
20260506222455 53 180 12.2 0.0 0.00 0.00 0.00 95 101.1
20260506222349 53 180 12.2 0.0 0.00 0.00 0.00 95 101.1
20260506222243 53 180 12.2 0.0 0.00 0.00 0.00 95 101.1
20260506222136 53 180 12.2 0.0 0.00 0.00 0.00 95 101.1
20260506222030 53 180 12.2 0.0 0.00 0.00 0.00 95 101.1
20260506221924 53 180 12.2 0.0 0.00 0.00 0.00 95 101.1
20260506221818 53 180 12.2 0.0 0.00 0.00 0.00 95 101.1
20260506221711 53 180 12.2 0.0 0.00 0.00 0.00 95 101.1
20260506221605 53 180 12.2 0.0 0.00 0.00 0.00 95 101.1
20260506221459 53 180 12.2 0.0 0.00 0.00 0.00 95 101.1
20260506221353 53 200 11.3 0.0 0.00 0.00 0.00 94 101.1
20260506221246 53 200 11.3 0.0 0.00 0.00 0.00 94 101.1
20260506221140 53 200 11.3 0.0 0.00 0.00 0.00 94 101.1
20260506221034 53 200 11.3 0.0 0.00 0.00 0.00 94 101.1
20260506220927 53 200 11.3 0.0 0.00 0.00 0.00 94 101.1
20260506220821 53 200 11.3 0.0 0.00 0.00 0.00 94 101.1
20260506220715 53 200 11.3 0.0 0.00 0.00 0.00 94 101.1
20260506220609 53 200 11.3 0.0 0.00 0.00 0.00 94 101.1
20260506220502 53 200 11.3 0.0 0.00 0.00 0.00 94 101.1
20260506220356 53 200 11.3 0.0 0.00 0.00 0.00 94 101.1
20260506220250 53 200 13.0 0.0 0.00 0.00 0.00 97 101.2
20260506220144 53 200 13.0 0.0 0.00 0.00 0.00 97 101.2
20260506220038 53 200 13.0 0.0 0.00 0.00 0.00 97 101.2
20260506215931 53 200 13.0 0.0 0.00 0.00 0.00 97 101.2
20260506215825 53 200 13.0 0.0 0.00 0.00 0.00 97 101.2
20260506215719 53 200 13.0 0.0 0.00 0.00 0.00 97 101.2
20260506215612 53 200 13.0 0.0 0.00 0.00 0.00 95 101.2
20260506215506 53 200 13.0 0.0 0.00 0.00 0.00 95 101.2
20260506215400 53 200 13.0 0.0 0.00 0.00 0.00 95 101.2
20260506215253 53 200 13.0 0.0 0.00 0.00 0.00 95 101.2
20260506215147 53 200 13.0 0.0 0.00 0.00 0.00 95 101.2
20260506215041 53 200 13.0 0.0 0.00 0.00 0.00 95 101.2
20260506214935 53 200 13.0 0.0 0.00 0.00 0.00 95 101.2
20260506214828 53 200 13.0 0.0 0.00 0.00 0.00 95 101.2
20260506214722 54 200 13.0 0.0 0.00 0.00 0.00 92 101.2
20260506214616 55 200 13.0 0.0 0.00 0.00 0.00 86 101.2
20260506214510 55 200 13.0 0.0 0.00 0.00 0.00 86 101.2
20260506214403 55 200 13.0 0.0 0.00 0.00 0.00 86 101.2
20260506214257 55 200 13.0 0.0 0.00 0.00 0.00 86 101.2
20260506214151 55 200 13.0 0.0 0.00 0.00 0.00 86 101.2
20260506214045 55 200 13.0 0.0 0.00 0.00 0.00 86 101.2
20260506213938 55 200 13.0 0.0 0.00 0.00 0.00 86 101.2
20260506213832 55 200 13.0 0.0 0.00 0.00 0.00 86 101.2
20260506213726 55 200 13.0 0.0 0.00 0.00 0.00 86 101.2
20260506213620 56 190 6.1 0.0 0.00 0.00 0.00 74 101.1
20260506213513 56 190 6.1 0.0 0.00 0.00 0.00 74 101.1
20260506213407 56 190 6.1 0.0 0.00 0.00 0.00 74 101.1
20260506213301 56 190 6.1 0.0 0.00 0.00 0.00 74 101.1
20260506213155 56 190 6.1 0.0 0.00 0.00 0.00 74 101.1
20260506213048 56 190 6.1 0.0 0.00 0.00 0.00 74 101.1
20260506212942 56 190 6.1 0.0 0.00 0.00 0.00 74 101.1
20260506212836 56 190 6.1 0.0 0.00 0.00 0.00 74 101.1
20260506212730 56 190 6.1 0.0 0.00 0.00 0.00 74 101.1
20260506212624 56 190 6.1 0.0 0.00 0.00 0.00 74 101.1
20260506212517 56 190 7.0 0.0 0.00 0.00 0.00 74 101.1
20260506212411 56 190 7.0 0.0 0.00 0.00 0.00 74 101.1
20260506212306 56 190 7.8 0.0 0.00 0.00 0.00 74 101.1
20260506212159 56 190 7.8 0.0 0.00 0.00 0.00 74 101.1
20260506212052 56 190 7.8 0.0 0.00 0.00 0.00 74 101.1
20260506211946 56 190 7.8 0.0 0.00 0.00 0.00 74 101.1
20260506211840 56 190 7.8 0.0 0.00 0.00 0.00 74 101.1
20260506211734 56 190 7.8 0.0 0.00 0.00 0.00 74 101.1
20260506211628 56 190 7.8 0.0 0.00 0.00 0.00 74 101.1
20260506211521 56 190 7.8 0.0 0.00 0.00 0.00 74 101.1
20260506211415 56 190 7.8 0.0 0.00 0.00 0.00 74 101.1
20260506211309 56 190 7.8 0.0 0.00 0.00 0.00 74 101.1
20260506211203 56 190 8.7 0.0 0.00 0.00 0.00 74 101.1
20260506211057 56 190 8.7 0.0 0.00 0.00 0.00 74 101.1
20260506210950 56 190 8.7 0.0 0.00 0.00 0.00 74 101.1
20260506210844 56 190 8.7 0.0 0.00 0.00 0.00 74 101.1
20260506210738 56 190 8.7 0.0 0.00 0.00 0.00 74 101.1
20260506210632 56 190 8.7 0.0 0.00 0.00 0.00 74 101.1
20260506210526 56 190 8.7 0.0 0.00 0.00 0.00 74 101.1
20260506210419 56 190 9.6 0.0 0.00 0.00 0.00 74 101.2
20260506210313 56 190 9.6 0.0 0.00 0.00 0.00 74 101.2
20260506210207 56 190 9.6 0.0 0.00 0.00 0.00 74 101.2
20260506210101 56 190 9.6 0.0 0.00 0.00 0.00 74 101.2
20260506205955 56 190 9.6 0.0 0.00 0.00 0.00 74 101.2
20260506205848 56 190 9.6 0.0 0.00 0.00 0.00 74 101.2
20260506205742 56 190 9.6 0.0 0.00 0.00 0.00 74 101.2
20260506205636 56 190 9.6 0.0 0.00 0.00 0.00 74 101.2
20260506205529 56 190 9.6 0.0 0.00 0.00 0.00 74 101.2
20260506205423 56 190 9.6 0.0 0.00 0.00 0.00 74 101.2
20260506205317 56 190 11.3 0.0 0.00 0.00 0.00 78 101.2
20260506205105 56 190 11.3 0.0 0.00 0.00 0.00 78 101.2
20260506204958 56 190 11.3 0.0 0.00 0.00 0.00 78 101.2
20260506204852 56 190 11.3 0.0 0.00 0.00 0.00 78 101.2
20260506204746 56 190 11.3 0.0 0.00 0.00 0.00 78 101.2
20260506204640 56 190 11.3 0.0 0.00 0.00 0.00 78 101.2
20260506204533 56 190 11.3 0.0 0.00 0.00 0.00 78 101.2
20260506204427 56 190 11.3 0.0 0.00 0.00 0.00 78 101.2
20260506204321 56 190 11.3 0.0 0.00 0.00 0.00 78 101.2
20260506204215 56 190 11.3 0.0 0.00 0.00 0.00 78 101.2
20260506204108 56 190 11.3 0.0 0.00 0.00 0.00 78 101.2
20260506204002 56 190 11.3 0.0 0.00 0.00 0.00 78 101.2
20260506203855 56 190 11.3 0.0 0.00 0.00 0.00 78 101.2
20260506203749 56 190 11.3 0.0 0.00 0.00 0.00 78 101.2
20260506203643 56 190 11.3 0.0 0.00 0.00 0.00 76 101.1
20260506203537 56 190 11.3 0.0 0.00 0.00 0.00 76 101.1
20260506203431 56 190 11.3 0.0 0.00 0.00 0.00 76 101.1
20260506203324 56 190 11.3 0.0 0.00 0.00 0.00 76 101.1
20260506203218 56 190 11.3 0.0 0.00 0.00 0.00 76 101.1
20260506203112 56 190 11.3 0.0 0.00 0.00 0.00 76 101.1
20260506203006 56 190 11.3 0.0 0.00 0.00 0.00 76 101.1
20260506202900 56 190 11.3 0.0 0.00 0.00 0.00 76 101.1
20260506202753 56 190 11.3 0.0 0.00 0.00 0.00 76 101.1
20260506202647 56 190 11.3 0.0 0.00 0.00 0.00 76 101.1
20260506202541 57 227 2.6 2.6 0.00 0.00 0.00 70 101.1
20260506202435 57 227 2.6 2.6 0.00 0.00 0.00 70 101.1
20260506202328 57 227 2.6 2.6 0.00 0.00 0.00 70 101.1
20260506202222 57 227 2.6 2.6 0.00 0.00 0.00 70 101.1
20260506202116 57 227 2.6 2.6 0.00 0.00 0.00 70 101.1
20260506202010 57 227 2.6 2.6 0.00 0.00 0.00 70 101.1
20260506201904 57 227 2.6 2.6 0.00 0.00 0.00 70 101.1
20260506201757 57 227 2.6 2.6 0.00 0.00 0.00 69 101.1
20260506201651 57 227 2.6 2.6 0.00 0.00 0.00 69 101.1
20260506201545 57 227 2.6 2.6 0.00 0.00 0.00 69 101.1
20260506201439 57 227 2.6 2.6 0.00 0.00 0.00 67 101.1
20260506201332 57 227 2.6 2.6 0.00 0.00 0.00 67 101.1
20260506201226 57 227 2.6 2.6 0.00 0.00 0.00 67 101.1
20260506201120 57 227 2.6 2.6 0.00 0.00 0.00 67 101.1
20260506201013 57 227 2.6 2.6 0.00 0.00 0.00 67 101.1
20260506200907 57 227 2.6 2.6 0.00 0.00 0.00 67 101.1
20260506200801 57 227 2.6 2.6 0.00 0.00 0.00 67 101.1
20260506200655 57 227 2.6 2.6 0.00 0.00 0.00 67 101.1
20260506200548 57 227 2.6 2.6 0.00 0.00 0.00 67 101.1
20260506200442 57 227 2.6 2.6 0.00 0.00 0.00 67 101.1
20260506200335 57 227 2.6 2.6 0.00 0.00 0.00 67 101.1
20260506200229 57 227 2.6 2.6 0.00 0.00 0.00 67 101.1
20260506200123 57 227 2.6 2.6 0.00 0.00 0.00 67 101.1
20260506200017 57 227 2.6 2.6 0.00 0.00 0.00 67 101.1
20260506195910 57 227 2.6 2.6 0.00 0.00 0.00 67 101.1
20260506195804 57 227 2.6 2.6 0.00 0.00 0.00 67 101.1
20260506195658 57 227 2.6 3.5 0.00 0.00 0.00 67 101.1
20260506195552 57 227 2.6 3.5 0.00 0.00 0.00 67 101.1
20260506195445 57 227 2.6 3.5 0.00 0.00 0.00 67 101.1
20260506195339 57 227 2.6 3.5 0.00 0.00 0.00 67 101.1
20260506195233 57 227 2.6 3.5 0.00 0.00 0.00 67 101.1
20260506195127 57 227 2.6 3.5 0.00 0.00 0.00 67 101.1
20260506195021 57 227 2.6 3.5 0.00 0.00 0.00 67 101.1
20260506194914 57 227 2.6 3.5 0.00 0.00 0.00 67 101.1
20260506194808 57 227 2.6 3.5 0.00 0.00 0.00 67 101.1
20260506194702 57 227 2.6 3.5 0.00 0.00 0.00 67 101.1
20260506194556 57 234 0.9 2.6 0.00 0.00 0.00 67 101.1
20260506194449 57 234 0.9 2.6 0.00 0.00 0.00 67 101.1
20260506194343 57 234 0.9 2.6 0.00 0.00 0.00 67 101.1
20260506194237 57 234 0.9 2.6 0.00 0.00 0.00 67 101.1
20260506194131 57 234 0.9 2.6 0.00 0.00 0.00 67 101.1
20260506194024 57 234 0.9 2.6 0.00 0.00 0.00 67 101.1
20260506193918 57 234 0.9 2.6 0.00 0.00 0.00 67 101.1
20260506193812 57 234 0.9 2.6 0.00 0.00 0.00 67 101.1
20260506193706 57 234 0.9 2.6 0.00 0.00 0.00 67 101.1
20260506193600 57 234 0.9 2.6 0.00 0.00 0.00 67 101.1
20260506193453 57 234 0.9 2.6 0.00 0.00 0.00 67 101.1
20260506193347 57 234 0.9 2.6 0.00 0.00 0.00 67 101.1
20260506193241 58 190 7.0 0.0 0.00 0.00 0.00 67 101.0
20260506193135 58 190 7.0 0.0 0.00 0.00 0.00 67 101.0
20260506193028 58 190 7.0 0.0 0.00 0.00 0.00 67 101.0
20260506192922 58 190 7.0 0.0 0.00 0.00 0.00 67 101.0
20260506192815 58 190 7.0 0.0 0.00 0.00 0.00 67 101.0
20260506192709 58 190 7.0 0.0 0.00 0.00 0.00 67 101.0
20260506192603 58 190 7.0 0.0 0.00 0.00 0.00 67 101.0
20260506192457 58 190 6.1 0.0 0.00 0.00 0.00 66 101.0
20260506192351 58 190 6.1 0.0 0.00 0.00 0.00 66 101.0
20260506192244 58 190 6.1 0.0 0.00 0.00 0.00 66 101.0
20260506192138 58 190 7.0 0.0 0.00 0.00 0.00 67 101.0
20260506192032 58 190 7.8 0.0 0.00 0.00 0.00 68 101.0
20260506191925 58 190 7.8 0.0 0.00 0.00 0.00 68 101.0
20260506191818 58 190 7.8 0.0 0.00 0.00 0.00 68 101.0
20260506191712 58 190 7.8 0.0 0.00 0.00 0.00 68 101.0
20260506191606 58 190 7.8 0.0 0.00 0.00 0.00 68 101.0
20260506191500 58 190 8.7 0.0 0.00 0.00 0.00 71 101.0
20260506191353 58 190 8.7 0.0 0.00 0.00 0.00 71 101.0
20260506191246 58 190 8.7 0.0 0.00 0.00 0.00 71 101.0
20260506191140 58 190 8.7 0.0 0.00 0.00 0.00 71 101.0
20260506191035 58 190 8.7 0.0 0.00 0.00 0.00 71 101.0
20260506190928 58 190 8.7 0.0 0.00 0.00 0.00 71 101.0
20260506190822 57 190 10.4 0.0 0.00 0.00 0.00 77 101.1
20260506190715 57 190 10.4 0.0 0.00 0.00 0.00 77 101.1
20260506190609 57 190 10.4 0.0 0.00 0.00 0.00 77 101.1
20260506190503 57 190 10.4 0.0 0.00 0.00 0.00 77 101.1
20260506190357 57 190 10.4 0.0 0.00 0.00 0.00 77 101.1
20260506190250 57 190 10.4 0.0 0.00 0.00 0.00 77 101.1
20260506190144 57 190 10.4 0.0 0.00 0.00 0.00 77 101.1
20260506190037 57 190 10.4 0.0 0.00 0.00 0.00 77 101.1
20260506185931 57 190 10.4 0.0 0.00 0.00 0.00 77 101.1
20260506185825 57 190 10.4 0.0 0.00 0.00 0.00 77 101.1
20260506185718 57 190 10.4 0.0 0.00 0.00 0.00 77 101.1
20260506185612 57 190 10.4 0.0 0.00 0.00 0.00 77 101.1
20260506185506 57 190 10.4 0.0 0.00 0.00 0.00 77 101.1
20260506185359 57 190 10.4 0.0 0.00 0.00 0.00 77 101.1
20260506185251 57 190 10.4 0.0 0.00 0.00 0.00 77 101.1
20260506185145 57 190 10.4 0.0 0.00 0.00 0.00 77 101.1
20260506185039 57 190 10.4 0.0 0.00 0.00 0.00 77 101.1
20260506184932 57 190 10.4 0.0 0.00 0.00 0.00 77 101.1
20260506184826 57 190 10.4 0.0 0.00 0.00 0.00 77 101.1
20260506184720 57 190 10.4 0.0 0.00 0.00 0.00 77 101.1
20260506184614 57 190 10.4 0.0 0.00 0.00 0.00 77 101.1
20260506184507 57 190 10.4 0.0 0.00 0.00 0.00 77 101.1
20260506184401 57 190 10.4 0.0 0.00 0.00 0.00 77 101.1
20260506184254 57 190 10.4 0.0 0.00 0.00 0.00 77 101.1
20260506184148 57 190 10.4 0.0 0.00 0.00 0.00 77 101.1
20260506184042 57 190 10.4 0.0 0.00 0.00 0.00 77 101.1
20260506183936 57 190 10.4 0.0 0.00 0.00 0.00 77 101.1
20260506183829 57 190 10.4 0.0 0.00 0.00 0.00 77 101.1
20260506183723 57 190 10.4 0.0 0.00 0.00 0.00 77 101.1
20260506183617 57 190 10.4 0.0 0.00 0.00 0.00 77 101.1
20260506183510 57 190 10.4 0.0 0.00 0.00 0.00 77 101.1
20260506183404 57 190 10.4 0.0 0.00 0.00 0.00 77 101.1
20260506183258 57 190 10.4 0.0 0.00 0.00 0.00 77 101.1
20260506183152 57 190 10.4 0.0 0.00 0.00 0.00 77 101.1
20260506183046 59 190 10.4 0.0 0.00 0.00 0.00 72 101.0
20260506182939 59 190 10.4 0.0 0.00 0.00 0.00 72 101.0
20260506182833 59 190 10.4 0.0 0.00 0.00 0.00 72 101.0
20260506182727 59 190 10.4 0.0 0.00 0.00 0.00 72 101.0